GFSMW_925_rhum_051.txt.gz
RH
37 32 27 26 29 72 81 81 85 84 85 88 93 92 88 82 80 79 78 79 80 85 86 87 84 82 80 78 80 87 88 93 91 100 97 86 86 81 71 69 70 73 75
36 31 29 31 35 48 64 70 78 87 90 91 92 93 90 90 90 89 91 93 94 95 97 97 95 94 90 86 88 90 100 100 100 99 98 90 72 67 64 62 62 59 61
36 34 34 37 39 42 45 50 58 68 78 88 96 98 98 96 93 93 94 96 96 98 100 100 100 100 100 100 98 99 100 100 98 98 98 90 80 76 70 69 63 67 65
38 36 39 45 48 48 45 42 42 40 39 37 38 38 39 38 38 38 38 38 37 37 38 39 44 51 65 81 85 93 99 100 100 98 89 98 97 94 91 72 67 71 73
38 35 39 43 53 54 49 47 44 42 42 41 41 41 42 44 45 45 44 46 48 51 52 53 48 43 45 53 58 66 93 100 100 95 92 96 97 99 94 91 84 76 74
40 36 41 53 61 58 56 53 49 48 48 46 45 46 47 49 50 50 48 46 45 45 49 51 55 58 64 66 73 81 91 100 100 100 98 99 94 91 92 93 92 88 81
44 44 61 72 67 63 60 56 53 53 53 52 51 51 52 54 56 58 60 59 58 56 54 54 68 76 83 93 97 100 100 99 99 98 99 97 95 97 99 97 94 95 91
41 48 64 74 73 68 65 61 58 57 57 56 56 56 57 58 62 65 68 72 74 75 73 73 91 93 89 93 98 97 99 100 100 99 98 96 95 98 100 99 97 96 92
54 66 79 76 74 70 66 62 61 61 62 61 62 63 64 67 70 74 78 83 86 87 89 92 92 89 83 80 86 99 100 99 99 98 94 89 87 97 99 97 96 96 94
72 78 77 81 75 71 70 67 64 63 64 65 65 66 67 70 74 79 84 87 90 92 94 95 93 90 86 84 84 96 98 98 97 94 91 89 87 85 84 82 88 98 98
74 77 78 80 76 74 72 69 68 68 70 70 69 70 71 74 77 80 82 85 88 89 90 91 92 90 88 90 92 98 96 98 98 97 94 92 90 90 86 87 92 96 99
74 75 81 86 85 79 75 72 72 71 72 73 74 75 77 80 84 84 84 84 84 85 86 89 90 90 89 90 92 95 100 99 97 96 95 95 96 94 94 94 94 94 96
75 78 84 85 86 81 78 76 75 74 74 76 79 82 85 88 89 88 87 86 85 85 88 89 88 90 91 91 92 92 94 96 97 97 95 96 97 98 96 93 92 94 95
72 74 81 84 86 81 80 79 78 77 78 80 83 88 91 93 94 93 91 91 90 92 93 92 90 89 91 93 96 98 100 100 100 98 99 97 96 94 94 93 94 93 94
74 73 77 82 88 86 84 80 78 79 81 84 88 92 96 99 100 99 98 97 97 98 99 99 99 99 96 99 100 98 99 99 98 99 99 100 99 93 90 94 95 94 97
66 71 76 84 87 87 83 80 80 85 86 88 91 94 98 100 100 100 100 100 100 100 99 99 99 99 100 100 100 98 97 96 95 96 95 92 92 98 99 99 99 99 96
56 68 72 77 83 82 77 81 83 87 88 89 93 97 100 100 100 100 100 100 100 99 99 99 100 99 99 100 90 89 89 87 83 79 78 76 74 73 81 81 82 79 87
57 66 72 78 76 76 78 80 85 87 88 93 95 96 99 99 100 100 100 99 99 99 100 100 100 98 99 97 80 75 68 59 50 47 52 64 86 87 64 59 62 68 80
53 60 65 69 73 76 78 84 90 90 92 94 96 97 99 99 100 99 99 99 99 96 92 92 85 75 77 59 44 41 41 45 51 66 73 71 86 89 90 68 61 57 75
64 64 66 70 75 79 82 89 92 94 95 94 94 96 99 100 99 99 99 99 95 93 90 82 72 72 77 74 44 43 41 43 47 50 54 75 86 85 85 80 69 61 66
72 70 73 77 76 81 86 93 95 97 92 94 96 99 99 99 100 100 99 98 98 94 83 67 72 74 69 78 84 72 62 57 55 56 55 56 87 83 77 78 59 68 75
86 81 83 83 82 84 88 95 98 93 95 96 98 100 100 99 99 100 99 100 84 82 70 65 55 48 47 52 59 77 82 80 65 59 58 70 84 83 82 70 67 82 72
85 81 82 87 88 88 87 94 92 94 97 98 100 100 100 100 100 99 100 77 66 61 57 46 36 29 29 35 40 62 70 59 63 53 62 82 62 56 59 53 72 63 51
85 81 82 87 93 89 88 85 88 92 96 98 100 100 100 100 100 100 72 61 54 46 39 34 31 28 28 28 30 41 48 54 59 65 71 73 61 43 48 48 48 55 62
81 79 78 79 81 81 85 85 85 90 94 95 96 97 97 99 98 99 60 48 41 40 34 29 26 26 27 23 24 33 58 69 73 89 83 77 70 48 43 43 48 58 66
79 86 92 94 88 86 87 86 85 88 91 95 96 96 99 99 100 93 62 52 50 42 34 30 28 25 25 25 31 74 75 75 82 83 82 75 58 61 52 48 48 49 53

GFSMW_925_rhum_054.txt.gz
RH
37 37 29 29 32 67 80 87 92 90 92 89 86 85 88 85 84 86 87 85 85 85 89 91 90 90 91 87 86 86 88 89 96 99 92 79 74 71 66 67 64 63 65
36 37 29 31 31 40 71 79 84 83 87 84 85 85 84 85 84 91 97 96 97 98 99 100 100 100 99 97 94 94 97 100 100 100 99 76 52 55 64 63 61 60 59
32 34 30 31 41 43 53 63 75 89 94 97 96 96 96 95 89 95 98 96 98 98 99 100 99 99 100 97 96 99 100 100 98 96 94 74 54 62 59 65 62 62 61
35 34 32 34 42 52 54 55 57 66 76 83 79 78 75 69 57 55 50 46 43 42 41 40 51 76 90 94 97 100 99 100 96 99 99 88 87 84 84 68 63 69 67
38 35 32 36 46 51 52 57 51 46 42 40 46 46 46 48 44 44 44 48 48 46 49 52 54 52 56 70 79 83 90 98 99 96 99 98 100 98 94 83 64 67 62
34 32 31 38 51 64 55 56 58 53 48 45 44 50 53 54 55 58 58 58 59 54 51 50 60 66 88 84 83 87 98 99 100 98 98 93 88 90 86 88 82 77 73
30 33 34 44 53 65 68 65 58 59 60 59 56 54 57 59 64 66 66 68 65 71 76 63 83 91 96 97 99 97 98 98 97 99 100 99 98 94 94 96 86 79 76
27 36 36 42 55 64 66 59 58 60 62 62 61 58 58 68 71 71 76 75 80 84 92 91 94 96 96 99 98 92 95 99 100 100 100 100 99 97 99 96 80 80 77
27 33 38 49 60 65 63 60 60 63 65 66 65 65 65 64 71 69 73 86 89 87 91 94 97 94 90 86 98 99 100 100 100 100 100 99 98 100 99 99 100 88 79
35 39 48 54 60 62 64 63 61 62 67 68 67 67 66 65 70 73 80 84 86 88 92 96 95 93 90 90 91 100 98 95 95 94 96 96 96 91 89 92 93 99 91
42 50 54 61 64 67 67 65 64 67 68 68 70 71 72 76 77 76 78 82 85 87 89 91 92 92 91 93 97 100 98 98 97 95 95 93 91 96 96 97 98 98 98
46 52 59 66 70 70 68 66 66 66 68 70 72 73 76 79 79 78 81 83 84 86 87 90 92 91 90 92 93 98 98 97 94 96 98 97 95 97 96 97 98 100 92
51 54 59 60 62 65 67 67 72 70 72 75 74 76 77 80 80 82 84 87 88 88 87 90 91 91 92 91 91 92 96 97 96 96 94 94 95 98 98 95 98 96 94
47 51 55 57 60 64 68 70 70 72 76 79 78 79 81 85 86 86 87 90 93 91 91 92 93 96 98 96 95 98 100 100 100 99 98 98 99 99 98 93 91 91 99
41 47 51 50 58 66 70 71 72 75 77 78 80 82 88 92 95 98 98 98 96 95 96 99 99 100 100 100 100 99 99 99 99 99 99 99 94 89 91 99 99 98 95
34 41 47 50 56 62 68 71 72 74 78 79 83 90 94 98 100 99 99 99 100 100 100 99 100 100 100 98 99 99 99 99 100 98 94 98 98 98 97 97 98 94 94
32 35 43 48 55 62 68 73 74 77 78 81 84 89 95 100 99 99 100 100 99 100 100 99 99 100 100 100 97 96 96 93 92 94 97 93 90 86 88 88 88 83 83
34 33 36 45 54 63 73 75 78 80 79 83 87 92 99 100 99 100 99 99 100 100 99 99 100 100 100 94 81 76 69 62 56 52 56 78 82 82 68 70 73 74 79
34 36 37 43 58 69 76 78 82 82 83 86 89 96 100 100 99 99 99 100 100 99 98 98 96 90 86 70 43 33 36 40 49 67 73 72 78 91 80 74 73 58 70
40 44 52 56 62 69 78 79 82 85 86 90 92 98 100 100 99 99 100 99 99 94 92 86 76 66 74 52 32 32 53 55 51 54 60 64 80 84 85 77 62 52 55
54 58 60 62 64 77 82 83 87 87 88 92 98 100 100 100 100 99 100 100 98 95 88 79 69 70 76 84 68 52 57 50 50 52 54 59 71 84 78 76 58 60 69
69 66 66 72 80 84 83 83 87 91 93 96 100 100 100 100 100 100 99 99 98 98 88 77 71 68 63 65 76 85 76 64 62 59 59 63 66 84 83 78 66 76 71
71 70 70 76 81 83 80 82 86 94 94 96 99 100 100 100 100 100 100 100 99 86 72 66 54 46 42 48 50 81 81 80 65 63 58 79 70 58 58 59 68 71 57
69 72 73 73 78 82 84 80 89 94 94 94 98 100 100 100 100 100 100 98 80 70 57 50 42 37 35 35 36 49 72 67 68 60 74 75 66 52 53 55 54 58 59
73 74 71 71 73 84 84 86 91 89 96 94 98 100 100 100 100 100 99 82 62 51 43 39 35 35 35 29 26 29 52 62 69 76 82 75 66 56 48 48 50 56 63
72 75 77 79 87 87 88 90 87 91 95 93 94 99 100 100 100 100 100 90 56 39 39 38 32 26 24 24 21 24 40 79 83 85 76 66 64 54 49 45 44 48 58

GFSMW_925_rhum_057.txt.gz
RH
25 33 30 27 28 63 71 76 83 85 85 84 83 78 78 74 69 70 70 73 75 75 77 79 78 77 78 78 77 76 78 80 82 87 90 82 70 65 65 60 58 57 59
24 34 31 28 28 36 65 71 78 83 85 87 84 77 74 72 70 74 81 84 83 84 85 86 88 89 90 88 86 86 86 86 92 95 97 83 55 54 59 59 60 60 60
25 30 31 30 32 32 48 66 70 74 76 83 81 84 87 85 88 86 92 93 89 87 94 98 98 98 96 96 95 94 92 96 91 95 92 78 63 58 55 62 62 61 62
26 27 31 30 37 38 48 55 64 78 83 92 92 89 85 82 76 68 66 67 63 61 57 54 54 61 80 91 90 94 93 90 93 97 95 86 83 81 76 65 63 62 60
28 28 31 32 36 47 56 55 57 58 63 71 70 72 69 55 52 52 52 53 56 50 48 51 59 64 67 61 66 73 81 89 91 84 78 82 91 92 96 88 70 63 62
27 30 33 32 40 56 60 58 55 55 55 53 53 49 48 49 52 54 53 52 55 59 59 53 52 69 79 85 86 88 87 90 90 90 89 90 92 93 93 94 78 82 70
24 28 32 32 40 58 64 60 56 56 56 54 54 56 57 56 57 58 58 58 56 60 66 76 76 80 87 92 96 97 97 98 94 84 91 93 94 90 90 89 89 87 70
21 26 31 34 40 57 62 58 54 52 54 56 58 60 61 61 62 64 66 65 66 70 79 84 86 87 90 94 94 95 92 99 99 97 100 100 100 99 98 96 94 89 74
22 24 29 36 43 57 59 53 51 53 57 59 59 58 62 64 65 69 70 74 78 81 84 89 91 92 95 97 99 99 98 97 99 100 100 100 99 98 96 94 95 80 80
27 27 28 36 47 56 57 55 52 55 59 60 59 61 64 66 67 68 69 73 76 80 85 88 91 93 94 95 100 98 97 94 94 96 96 96 94 96 98 99 98 96 90
29 33 36 43 52 57 60 57 56 59 62 60 62 63 64 68 68 68 67 71 75 78 82 85 89 88 88 90 98 99 98 94 94 93 91 92 92 92 95 91 93 92 93
34 38 42 48 53 58 62 60 59 61 60 60 62 63 66 69 69 68 70 73 74 78 81 83 85 85 87 87 87 94 98 94 89 92 95 94 92 94 93 94 94 97 99
36 40 46 51 56 58 57 58 59 59 63 65 64 64 66 68 68 69 72 76 79 80 80 82 83 84 86 85 85 86 89 90 90 90 89 90 91 97 99 97 100 94 92
28 38 44 47 52 56 58 59 62 62 67 69 68 67 67 69 70 73 76 78 82 85 86 85 85 89 93 96 98 97 96 97 97 96 94 96 98 100 97 91 90 89 97
30 32 41 43 48 54 57 59 61 64 67 69 70 70 72 76 82 83 87 91 93 94 94 95 94 98 100 99 99 99 99 99 99 99 99 98 92 91 94 97 97 94 92
29 30 31 40 43 49 58 60 62 64 66 68 71 74 79 85 91 92 96 98 98 97 98 99 99 99 98 99 100 99 99 99 99 99 99 95 95 92 89 93 92 92 91
33 31 30 34 41 45 54 60 63 65 66 67 69 75 80 90 97 97 99 100 99 99 99 99 99 99 99 99 99 99 99 99 98 97 95 91 89 88 85 83 83 77 59
36 33 31 30 36 43 54 62 66 67 68 70 73 76 84 92 98 99 100 99 99 100 99 100 98 98 99 99 91 90 86 83 81 78 76 77 77 62 64 64 66 68 72
38 38 32 31 34 43 59 66 70 70 70 72 75 81 89 96 100 99 99 100 100 99 100 100 99 99 100 85 63 50 49 46 49 62 67 68 72 84 65 72 58 55 59
45 46 39 41 37 46 64 69 72 73 74 76 80 85 94 98 100 99 99 99 100 100 98 96 86 77 80 48 36 35 57 50 50 50 59 47 71 81 83 76 62 51 52
53 56 49 48 47 57 68 71 76 76 78 80 85 90 97 100 99 99 99 99 99 97 95 87 74 60 58 69 46 41 49 46 45 47 52 56 58 82 79 71 65 55 66
59 60 54 57 60 68 72 73 77 80 81 85 90 96 99 100 100 99 100 100 100 97 95 88 76 70 72 71 87 88 57 63 57 55 56 57 58 79 85 82 74 67 63
59 61 60 66 72 73 71 72 77 81 82 86 91 96 100 100 100 100 100 100 100 97 85 72 59 56 55 55 51 67 79 86 70 60 57 58 67 60 57 62 67 71 67
58 62 63 64 67 70 70 67 75 82 84 86 92 97 100 100 100 100 100 99 98 94 74 62 58 46 38 34 37 45 71 80 73 62 54 64 71 63 57 52 50 51 54
60 66 65 63 64 70 72 72 80 85 86 88 91 96 99 100 99 100 98 98 94 78 63 55 47 40 37 29 28 31 39 58 60 68 72 76 73 63 54 50 49 49 54
62 67 69 69 73 74 77 78 83 87 93 98 98 98 100 100 99 99 99 99 90 68 58 42 38 33 30 28 27 30 41 59 70 77 80 75 66 62 54 46 42 43 48

GFSMW_925_rhum_060.txt.gz
RH
28 32 30 27 32 65 68 75 81 82 80 78 76 75 74 72 68 67 66 68 71 71 74 77 73 74 78 77 78 78 75 73 74 82 78 81 81 76 74 68 60 60 59
28 37 30 27 28 36 69 74 81 84 84 83 82 79 77 75 73 70 70 74 78 76 75 77 79 80 83 81 81 84 85 81 83 89 94 94 71 58 54 64 59 60 61
30 42 33 29 28 28 44 72 78 83 85 88 86 82 84 81 78 81 82 80 83 82 83 84 84 85 88 87 82 87 93 99 94 90 86 87 89 72 62 61 63 63 64
29 34 35 33 31 31 34 58 77 75 80 84 86 88 87 87 85 82 87 86 88 81 79 76 69 70 77 85 86 77 77 91 87 90 87 77 85 91 82 65 66 62 61
32 33 37 33 34 36 38 51 64 81 86 89 90 90 87 77 68 68 66 62 51 47 44 45 50 55 60 62 59 64 76 85 86 85 75 77 69 78 91 91 73 66 63
34 31 36 35 44 45 46 48 53 59 63 71 78 72 73 56 55 51 45 50 51 52 49 49 49 53 64 72 82 84 85 86 88 82 82 78 89 97 98 98 90 81 69
33 37 43 42 49 50 54 54 54 54 54 54 53 50 50 49 50 53 54 54 55 57 63 68 66 70 77 82 86 92 89 93 91 84 86 82 86 93 90 89 91 90 81
26 27 43 42 49 54 58 57 53 53 53 54 53 52 54 52 52 54 56 58 63 65 70 71 71 77 84 84 94 92 89 84 87 87 93 88 92 89 91 91 92 97 90
27 26 31 42 53 58 58 56 52 52 54 55 54 55 57 56 60 55 55 62 69 71 67 68 78 86 88 91 98 97 92 92 96 100 100 99 100 100 99 97 93 90 88
28 30 32 33 49 56 59 57 52 47 49 51 52 57 58 54 53 57 61 66 68 72 70 76 86 88 89 91 98 96 96 97 98 98 97 96 95 95 95 95 91 90 88
40 40 39 37 48 57 59 55 53 57 58 56 56 55 47 52 60 60 64 66 69 71 74 80 81 87 87 88 94 98 96 93 91 91 91 92 93 88 93 94 93 92 92
43 45 45 47 57 58 60 58 57 59 59 59 58 60 63 62 60 62 66 68 70 74 76 79 82 84 85 86 87 92 95 94 91 92 91 92 93 91 94 94 90 92 97
42 46 53 54 56 60 62 60 59 60 61 60 61 62 64 65 65 66 69 72 74 78 80 80 82 84 85 86 86 89 92 90 89 90 90 90 92 92 97 95 96 95 91
36 43 56 59 56 58 60 59 60 60 62 62 62 63 64 66 67 68 72 75 79 81 82 82 83 85 86 88 88 90 91 90 90 90 91 93 94 96 97 92 93 94 94
38 37 50 60 55 57 58 59 60 62 64 65 66 66 66 68 72 76 79 81 83 86 86 88 90 90 93 98 99 99 98 98 98 98 97 97 98 93 96 96 94 95 89
43 41 39 49 52 54 58 60 61 63 64 67 68 69 71 75 81 86 88 90 92 92 93 94 96 96 98 98 100 98 99 99 98 97 99 96 93 91 91 90 91 90 90
47 45 44 42 45 48 55 59 61 63 65 67 70 72 77 84 88 90 96 98 96 96 97 98 99 98 99 98 99 100 98 97 99 95 93 90 89 88 86 85 86 72 60
49 48 45 42 41 40 51 57 61 64 65 66 68 72 78 85 91 94 97 99 99 98 99 100 98 97 97 99 98 96 97 97 96 94 88 76 68 61 62 65 64 67 72
54 52 49 50 42 40 47 58 63 66 67 68 71 74 81 87 92 96 98 100 100 100 99 99 97 97 98 100 87 68 64 58 51 52 65 72 76 76 59 65 52 53 58
55 57 57 58 47 43 52 61 68 69 70 71 74 77 84 90 95 96 98 99 99 99 99 100 98 98 90 75 43 41 46 48 54 55 58 62 75 82 70 68 64 52 53
57 57 61 60 52 58 62 69 73 74 73 73 76 81 86 92 98 96 96 99 99 100 99 95 88 72 64 52 40 34 44 45 44 47 50 51 50 68 74 67 66 55 64
59 59 61 62 62 64 68 73 77 76 76 77 82 86 90 97 100 99 99 100 100 100 98 94 85 68 55 77 78 53 49 58 49 50 51 53 54 52 72 85 74 68 64
59 61 62 64 68 70 72 75 78 79 80 84 88 90 96 99 100 100 100 100 100 100 98 94 81 66 64 61 73 86 87 86 57 56 54 55 60 60 61 62 83 73 66
64 64 63 66 70 72 73 70 76 80 82 86 90 92 95 100 100 100 100 100 99 100 95 86 72 59 53 48 43 57 68 79 81 64 59 51 58 63 56 57 56 56 50
68 70 67 68 66 68 70 68 73 79 82 86 89 93 97 100 99 99 98 98 97 96 94 81 64 52 46 34 27 26 30 40 60 60 62 67 67 64 58 51 46 46 48
70 77 73 71 71 70 71 72 75 80 83 87 90 95 99 100 100 100 100 100 98 96 91 71 54 45 38 32 30 34 36 45 60 69 68 67 72 69 62 57 49 44 45

GFSMW_925_rhum_063.txt.gz
RH
36 33 29 45 65 68 71 72 76 74 71 69 68 67 67 65 64 65 65 65 66 70 70 73 72 70 72 71 73 77 81 70 68 69 70 72 61 67 60 65 77 66 60
36 40 32 31 46 66 67 68 74 76 75 74 72 73 71 70 71 69 68 67 71 71 71 75 76 75 74 75 76 79 82 77 69 78 92 94 68 60 64 68 64 62 62
40 46 36 29 29 48 68 71 70 74 80 79 78 79 79 77 75 74 74 73 72 72 75 79 79 79 80 79 78 79 81 80 74 78 83 92 88 84 65 66 64 64 65
38 44 38 33 29 31 52 72 72 74 79 83 85 86 82 85 86 82 86 82 81 81 84 83 86 87 89 90 87 86 84 81 87 91 93 90 83 90 84 67 68 66 62
37 43 42 34 29 30 38 64 80 79 76 72 76 76 88 90 84 84 86 87 84 81 63 51 45 48 53 56 59 61 66 84 93 86 86 87 78 74 85 90 76 69 67
37 39 40 37 38 42 44 54 71 85 90 95 96 90 90 80 72 71 69 63 53 47 47 46 48 48 52 62 69 80 84 86 90 93 90 78 82 94 93 98 89 80 82
36 44 51 51 46 44 42 45 53 61 67 76 78 82 84 76 72 64 52 51 51 53 57 58 60 59 62 71 78 83 87 84 83 84 83 81 81 83 87 93 94 93 88
32 34 47 49 46 42 42 45 47 52 54 56 58 55 53 52 54 53 51 48 57 56 64 64 63 60 64 74 80 92 93 92 89 82 84 84 93 94 97 94 92 99 95
36 36 48 48 57 56 52 49 51 52 54 53 52 52 51 50 52 54 49 55 61 62 62 61 58 66 75 80 86 89 96 90 88 83 89 94 100 100 100 100 96 92 97
42 42 39 42 53 57 58 55 52 51 55 56 52 45 42 45 50 45 44 50 56 61 60 64 70 79 82 85 90 93 92 92 95 100 99 99 98 99 99 97 94 91 92
45 46 46 40 46 59 59 58 56 55 55 57 58 56 53 41 37 44 56 61 63 61 64 66 70 77 83 86 90 94 93 94 93 92 93 94 94 94 92 93 93 92 91
47 50 48 47 54 60 62 61 57 56 55 57 57 58 58 58 61 62 62 62 63 66 71 70 73 78 83 84 87 89 90 94 90 89 91 90 89 90 88 95 92 90 91
47 54 58 58 59 58 62 62 59 59 58 58 58 60 61 60 60 61 64 66 67 69 74 74 76 81 82 83 85 90 87 92 90 88 90 89 93 90 92 92 91 93 95
46 47 61 64 59 59 62 62 61 60 60 60 61 62 63 63 64 65 68 70 72 74 77 80 81 81 82 83 86 89 91 91 89 90 91 92 91 92 95 97 96 95 92
52 51 52 60 63 64 63 62 62 61 62 62 62 63 64 65 67 69 72 74 77 79 81 82 85 86 87 90 94 95 94 93 93 93 93 94 95 95 95 95 94 91 89
58 53 52 50 50 57 64 62 60 61 63 64 63 64 66 68 71 75 78 80 82 83 84 87 92 94 94 94 99 100 99 99 99 97 97 97 96 98 96 92 90 90 88
63 59 56 54 51 48 52 65 60 60 63 64 64 67 69 72 77 81 85 86 89 89 91 95 97 97 98 99 99 100 100 99 98 99 99 95 91 89 88 87 84 74 75
52 59 62 60 59 58 54 57 63 62 63 65 66 70 72 75 81 85 89 97 99 97 97 98 99 97 99 98 100 97 98 98 98 95 92 90 87 81 68 63 57 57 59
52 52 61 63 63 61 54 60 67 64 66 66 68 70 73 79 85 90 91 96 98 99 99 100 98 95 97 98 94 91 95 96 96 90 76 69 68 68 60 53 52 55 62
58 58 60 66 61 58 55 68 71 70 69 67 67 69 72 78 85 89 93 96 99 98 100 100 99 96 95 99 88 53 48 50 51 57 67 70 74 92 71 62 62 52 52
68 65 63 70 64 63 68 79 75 76 70 67 68 71 75 81 86 90 96 94 99 100 100 100 99 98 97 79 72 58 46 43 47 45 47 56 84 82 79 63 63 52 56
75 71 67 74 64 68 75 76 77 72 71 72 73 76 80 87 88 96 100 100 100 100 100 100 97 88 75 63 76 66 46 45 42 44 45 48 70 68 76 82 69 70 67
76 74 70 74 66 70 71 77 76 78 78 77 78 81 87 89 90 98 100 100 100 100 100 100 96 89 70 55 83 81 71 74 51 46 49 49 66 58 71 71 80 80 68
68 71 74 78 75 69 71 75 77 80 80 81 84 88 88 90 94 99 100 100 100 100 100 100 97 89 68 59 61 79 86 86 89 62 61 57 63 60 52 47 60 71 58
78 75 80 86 83 74 71 71 72 80 82 84 87 91 89 98 95 100 99 100 99 97 98 96 92 86 64 50 44 41 54 59 76 77 69 62 70 72 63 57 49 46 44
84 83 84 83 84 88 80 73 72 78 80 86 90 92 92 99 100 100 100 99 100 98 98 94 93 83 60 44 37 31 29 32 47 88 73 66 72 77 76 66 53 47 44

GFSMW_925_rhum_066.txt.gz
RH
40 37 35 60 67 75 68 66 67 71 65 65 74 76 77 68 68 63 66 67 63 68 71 72 74 76 71 69 72 71 71 70 68 71 69 68 64 62 62 62 65 75 67
43 40 34 34 70 64 66 64 66 68 72 71 74 76 73 71 67 65 65 64 64 67 69 71 74 75 70 70 71 76 79 80 71 76 87 94 75 62 65 67 74 65 63
43 46 42 33 45 70 66 65 61 65 68 72 77 75 70 71 73 71 71 74 72 72 75 75 77 78 74 75 78 78 81 81 83 84 85 92 92 86 69 67 64 63 65
46 44 44 37 34 51 63 67 69 71 70 70 77 72 72 72 72 71 74 82 84 80 74 75 78 79 79 81 83 91 91 92 85 77 79 94 95 90 90 72 73 70 71
47 44 47 38 32 31 44 68 72 59 61 66 69 68 70 64 62 66 82 85 86 89 87 86 83 78 64 52 47 50 54 62 78 90 88 85 90 92 91 92 78 76 73
45 43 44 41 37 34 32 48 81 78 75 66 74 74 64 69 86 86 90 88 80 80 76 54 43 39 40 43 48 58 70 80 86 87 93 99 89 87 91 97 89 84 85
38 44 53 52 47 38 36 49 76 81 86 91 84 75 70 78 74 79 82 76 73 64 52 42 41 46 48 54 63 70 75 79 86 80 79 82 88 88 85 89 91 95 92
41 48 52 53 53 47 41 41 50 65 72 82 90 93 94 82 77 76 71 66 58 53 53 51 54 60 54 64 68 75 78 86 92 92 92 82 78 89 92 94 94 99 99
42 42 49 53 52 53 52 51 50 54 56 58 62 70 80 79 73 64 54 48 47 46 48 50 53 51 52 58 71 78 87 83 92 93 90 83 76 78 97 100 100 92 97
48 48 44 42 55 53 53 53 53 52 53 56 59 59 58 56 55 47 39 37 41 46 52 55 58 60 67 73 77 80 90 89 88 90 89 94 100 100 100 100 99 99 93
49 51 50 43 40 50 60 61 58 55 55 57 56 56 57 58 58 56 53 52 55 59 62 55 60 67 72 76 82 86 90 89 88 87 92 97 98 99 98 96 95 92 91
53 56 56 53 55 54 55 61 63 60 57 57 57 54 54 53 55 58 60 61 61 61 62 61 66 69 74 78 82 84 88 88 92 94 94 94 91 92 91 92 92 94 90
52 54 58 60 58 58 61 61 60 60 58 58 59 58 58 57 58 60 61 62 64 66 66 68 71 75 78 79 80 81 87 91 87 91 93 93 91 91 91 89 91 90 90
59 58 60 56 51 52 60 62 63 62 61 62 61 60 59 60 61 62 63 66 68 68 71 75 77 78 80 80 82 84 85 89 88 90 90 90 91 91 90 91 92 94 95
67 66 64 62 54 53 50 57 64 64 63 64 63 62 62 63 63 64 67 69 72 75 77 78 81 82 83 83 86 91 92 91 92 93 93 94 95 93 92 95 95 95 94
61 61 66 65 63 60 58 56 56 64 65 65 64 63 63 64 66 68 71 75 78 80 82 83 85 87 89 90 91 98 100 99 98 96 96 96 97 94 98 95 92 90 89
57 57 59 62 67 68 66 64 59 59 66 66 65 64 65 67 69 73 78 82 84 86 87 88 90 91 91 93 96 100 100 100 100 100 99 98 98 96 94 96 91 88 88
64 63 62 62 64 73 69 65 62 61 70 66 66 66 67 69 73 78 83 86 88 92 92 94 95 95 95 98 100 99 99 100 98 100 99 93 90 88 83 82 70 57 55
72 70 71 70 68 74 68 70 67 65 77 71 67 66 68 72 77 83 88 90 94 98 96 93 94 97 95 98 99 91 93 98 97 97 94 93 81 65 64 59 54 57 64
75 77 79 76 72 75 70 75 77 82 81 74 66 66 67 72 77 82 87 89 93 96 94 92 99 97 96 98 99 90 92 97 97 94 73 66 66 79 81 54 51 51 54
74 76 80 81 75 74 72 76 82 88 84 80 74 70 70 72 75 81 89 90 93 97 100 100 100 99 98 99 96 69 48 54 49 54 59 66 78 92 86 65 58 54 50
70 72 78 79 76 76 76 78 77 79 84 78 73 72 73 76 81 87 91 95 98 100 100 100 100 100 99 97 86 76 61 44 46 42 42 43 70 84 82 79 60 64 71
70 70 69 73 80 79 81 82 73 76 80 79 77 76 78 82 85 91 91 99 100 100 100 100 100 98 92 82 73 78 69 60 53 42 41 43 53 77 77 82 83 83 74
82 83 81 82 83 84 82 80 77 77 83 84 82 82 85 89 91 92 90 96 100 100 100 100 100 98 94 85 58 83 78 73 80 55 49 54 62 72 67 62 61 77 81
77 87 88 87 87 86 87 85 79 76 84 86 87 89 91 96 94 88 90 97 99 99 99 99 99 98 94 89 62 55 82 89 89 88 67 68 68 70 70 63 54 53 62
84 87 89 94 95 92 91 90 91 81 83 88 89 91 95 96 93 92 97 99 99 99 100 100 98 93 92 90 59 47 48 56 70 97 85 74 66 66 69 76 64 50 46

GFSMW_925_rhum_069.txt.gz
RH
42 39 40 59 90 73 61 65 70 70 71 76 80 93 79 73 72 66 70 65 69 69 70 74 74 76 78 74 67 70 72 74 72 73 69 69 70 66 63 64 63 67 77
44 41 39 36 73 82 64 70 69 70 71 68 70 76 73 72 75 70 64 65 67 69 64 65 71 75 78 76 74 73 76 72 74 78 84 94 78 68 67 66 67 77 71
47 44 41 38 33 63 75 73 68 67 71 77 77 77 78 75 75 72 70 73 72 76 74 73 76 79 81 80 78 78 82 87 80 81 87 89 94 88 72 70 68 66 65
49 47 44 42 35 34 52 63 61 59 65 76 77 77 86 85 76 72 71 74 70 72 70 76 76 74 80 79 74 77 80 85 95 91 76 89 95 88 89 73 74 70 69
52 48 46 42 38 32 36 58 67 64 60 63 58 65 63 58 62 72 76 68 71 73 82 88 84 72 67 74 80 65 54 56 61 72 85 89 89 94 99 92 84 81 79
52 47 40 39 40 39 37 42 56 68 65 65 74 67 64 64 67 75 88 86 88 91 90 85 79 68 68 60 43 44 50 62 75 80 87 98 97 91 97 99 91 88 90
47 47 46 51 48 47 38 33 42 60 78 82 89 94 73 65 63 69 90 90 96 93 81 77 68 60 43 45 47 50 56 64 78 80 85 84 88 94 96 92 88 94 94
48 53 64 54 57 54 49 49 60 74 80 84 90 88 98 92 91 85 85 86 93 83 73 69 56 40 42 44 52 56 67 77 80 90 97 98 95 89 90 89 85 98 99
53 50 50 61 57 54 52 53 51 50 52 56 62 69 82 97 90 90 87 83 82 76 60 44 48 52 54 56 66 73 75 84 84 84 94 97 91 88 74 80 93 99 97
58 60 59 55 58 62 61 57 54 52 52 54 58 60 64 79 88 84 78 72 65 54 54 60 60 62 64 64 67 68 74 89 89 88 89 90 91 89 93 100 100 100 100
62 66 65 56 55 57 59 63 62 58 55 55 56 60 62 62 64 66 66 58 58 67 62 61 60 57 58 64 68 71 78 92 90 88 85 86 92 97 100 99 99 98 98
62 63 60 56 54 53 58 61 62 65 63 60 60 60 59 60 61 56 53 53 58 60 59 57 57 60 62 66 75 76 78 85 94 86 94 95 94 94 96 95 93 93 92
67 68 66 64 60 58 55 55 62 63 62 63 63 62 60 58 56 55 55 56 57 59 59 60 62 64 68 74 77 79 79 82 93 94 88 95 95 95 94 93 92 92 92
70 70 70 70 65 64 62 59 54 56 66 64 65 64 62 59 58 59 59 60 61 62 63 65 69 73 76 79 80 82 82 84 87 87 87 96 95 94 93 94 92 92 91
60 62 64 68 66 66 67 65 61 59 60 68 65 65 64 64 63 63 63 65 67 68 71 74 76 78 81 82 83 84 86 90 93 93 94 95 96 96 93 92 92 95 95
62 62 64 63 65 66 70 73 67 63 67 68 70 66 66 67 66 66 66 68 71 74 77 79 81 84 85 86 87 90 94 98 98 97 96 96 97 95 92 93 94 94 94
68 69 70 72 71 70 71 77 74 68 65 64 68 71 68 68 68 68 70 73 75 78 81 83 86 87 88 90 93 99 99 100 100 100 100 100 100 99 96 97 93 91 88
74 75 77 78 80 76 73 78 76 73 75 71 66 70 70 69 70 72 74 77 81 83 85 88 91 92 92 95 97 99 97 100 100 100 100 98 95 92 90 90 83 76 66
77 78 79 80 81 79 77 82 77 77 81 80 78 75 71 70 72 76 78 82 85 86 87 92 89 93 95 96 99 96 96 99 100 100 99 93 90 89 82 69 60 56 57
72 75 74 76 77 76 82 86 81 81 79 82 86 83 78 72 73 74 79 84 88 89 92 94 90 94 95 96 99 92 89 93 98 94 93 95 83 65 83 53 54 54 58
68 69 71 73 72 73 84 88 86 82 79 82 86 85 81 74 72 74 81 87 91 94 95 96 96 96 98 96 99 97 82 86 94 95 83 68 85 84 89 71 56 54 48
77 80 82 80 75 79 86 91 92 81 81 84 86 86 84 79 77 79 85 92 94 95 99 100 100 100 99 98 98 98 79 42 43 44 45 51 69 93 90 86 60 59 55
76 76 79 86 84 86 85 94 90 86 81 84 87 85 84 83 83 84 90 98 97 100 100 100 100 99 99 99 98 94 81 78 56 41 40 40 43 82 83 82 76 82 71
84 76 82 88 86 94 95 92 92 94 85 83 88 88 88 88 89 91 92 95 98 100 100 100 100 99 99 98 93 86 77 76 70 63 47 47 46 70 74 71 80 81 84
78 78 80 84 86 91 96 99 95 99 99 86 88 90 91 94 94 96 94 93 90 90 99 99 99 100 99 93 90 88 63 75 73 75 69 62 70 74 79 71 62 53 64
77 79 81 83 86 87 87 96 97 94 100 100 92 90 92 95 98 98 98 93 87 91 97 100 100 97 96 95 93 91 77 65 82 98 90 76 63 63 63 64 62 58 57

GFSMW_925_rhum_075.txt.gz
RH
81 94 86 90 82 85 90 86 75 61 52 55 83 82 74 70 77 61 62 71 72 89 86 76 70 72 71 70 72 71 72 72 72 75 66 68 66 65 67 67 63 63 68
60 63 66 86 63 87 82 71 65 68 64 72 68 76 80 80 62 65 61 67 68 78 86 78 74 73 76 76 78 80 79 78 75 71 75 68 65 70 68 65 66 65 70
55 52 56 56 62 66 63 62 67 66 67 70 77 79 81 83 80 79 82 84 82 97 100 77 75 76 78 76 77 77 76 75 79 77 75 75 72 80 77 73 69 72 76
57 50 49 46 42 40 44 72 59 63 63 67 82 77 83 96 91 95 89 95 98 97 95 99 88 87 87 94 91 76 72 73 84 88 79 75 87 80 68 78 76 72 72
56 49 46 44 45 46 43 40 45 76 61 64 74 80 89 84 80 83 78 86 80 88 84 86 99 100 100 89 83 72 66 70 77 78 72 73 92 97 90 78 78 86 77
52 52 50 50 52 50 48 48 50 71 86 90 79 78 65 72 93 80 86 85 82 86 91 91 99 100 96 90 81 74 73 77 68 54 63 76 80 88 96 90 81 85 87
60 67 66 69 70 65 59 61 69 76 77 79 86 93 96 95 96 88 80 87 93 94 85 94 100 100 99 96 89 86 82 63 64 70 73 76 91 97 97 92 80 81 87
63 67 73 79 81 74 66 60 59 59 60 62 64 68 74 80 87 95 97 95 94 89 84 96 98 93 86 93 91 78 66 63 67 71 73 80 88 98 100 98 91 86 83
65 67 66 71 76 72 73 69 64 61 58 56 56 55 57 62 71 77 88 99 100 99 100 100 90 89 91 92 84 68 62 62 65 69 77 80 76 89 99 98 100 96 82
68 68 70 73 71 66 62 60 62 65 65 61 58 58 59 61 67 78 86 94 100 100 100 100 96 99 90 76 65 61 63 65 66 76 85 86 86 89 93 99 100 100 99
71 69 69 71 68 65 63 62 59 57 59 60 60 60 60 61 63 68 82 91 98 100 100 100 97 82 72 64 60 62 63 64 71 79 87 89 91 89 88 93 97 100 100
64 62 64 65 63 59 61 67 65 62 62 60 65 61 61 62 63 65 69 74 80 84 83 81 71 68 64 61 58 61 64 66 68 72 84 92 90 86 84 94 99 99 99
60 61 63 67 69 64 57 61 68 68 64 61 59 63 66 66 64 63 64 65 67 72 72 68 64 61 61 62 63 64 67 70 70 72 78 90 96 94 89 96 97 97 97
64 64 66 72 75 72 69 68 71 72 70 65 63 61 64 70 69 67 64 64 66 66 66 65 63 63 64 65 66 69 71 72 74 76 80 84 84 90 96 98 98 96 96
68 69 71 73 77 78 77 76 77 75 75 73 71 69 65 65 71 69 67 67 68 68 67 65 66 66 68 69 72 74 74 76 78 81 84 86 88 94 100 100 99 99 98
72 72 73 76 79 80 81 81 81 80 79 76 75 74 75 72 69 74 72 69 67 68 69 69 69 69 71 74 76 76 77 81 86 91 94 94 97 98 99 100 99 98 98
73 74 75 79 81 80 80 81 84 80 81 82 77 78 80 85 78 76 76 75 74 73 74 75 76 76 78 80 83 86 87 91 93 96 96 98 98 100 100 100 100 99 98
74 75 77 79 79 80 84 86 82 85 88 90 87 83 85 88 87 85 81 78 78 78 78 78 79 80 80 83 85 88 92 97 95 96 99 100 100 100 100 95 91 88 86
78 79 79 82 85 88 88 90 84 88 90 96 98 89 88 92 93 90 86 83 81 80 78 78 80 80 81 87 98 99 98 98 94 98 99 99 99 98 97 93 88 79 64
81 81 81 81 78 84 89 96 96 96 98 99 99 95 88 92 93 94 94 87 84 80 84 83 84 83 87 89 94 99 99 95 94 97 99 99 97 93 99 88 78 66 59
79 82 76 80 80 79 90 94 98 98 100 98 100 98 91 91 92 96 97 94 88 88 87 87 88 89 91 88 91 98 99 91 92 94 98 98 99 87 91 83 53 49 50
77 75 80 82 69 78 82 82 84 84 96 100 97 100 98 92 93 95 98 98 94 96 99 100 100 96 93 91 97 100 98 93 89 89 90 92 92 97 84 94 70 53 51
75 72 79 78 62 67 77 81 76 86 88 97 92 98 99 95 93 96 99 100 100 100 100 100 100 100 97 94 95 99 100 99 89 63 65 79 75 81 91 93 85 76 68
76 75 81 75 65 55 59 64 64 71 85 99 94 91 100 100 94 95 99 100 100 100 100 100 100 100 97 96 98 100 100 100 99 63 41 40 44 57 91 93 96 84 73
75 76 74 69 64 58 52 54 59 63 82 85 87 87 89 96 99 99 99 100 99 100 100 100 100 100 100 97 90 94 99 98 99 92 72 60 65 60 72 89 87 88 86
69 65 60 59 55 55 51 49 51 62 70 82 87 87 92 89 97 100 99 99 99 100 100 100 98 93 92 93 98 96 94 95 98 95 80 71 66 70 68 78 81 77 80

GFSMW_925_rhum_078.txt.gz
RH
93 97 84 71 91 68 78 84 76 78 86 95 74 74 70 90 87 81 93 90 89 90 92 91 86 76 73 68 64 65 66 70 75 70 65 61 58 63 65 64 62 66 75
94 95 97 96 94 84 81 80 88 78 81 83 71 71 76 96 90 89 91 92 96 85 88 80 96 89 78 73 67 71 76 78 74 66 68 58 52 57 65 63 65 69 75
87 90 98 95 86 94 91 89 88 82 75 68 77 82 89 86 81 86 96 95 90 92 97 90 89 99 92 83 78 80 80 74 77 74 63 58 52 57 55 67 65 67 71
62 67 71 76 88 88 78 83 89 76 69 74 72 78 83 89 87 86 86 88 88 99 96 96 100 98 100 95 92 85 83 80 78 77 73 74 69 61 47 61 67 70 69
65 55 48 51 55 51 52 62 87 88 82 85 84 75 79 87 89 84 85 99 96 84 80 70 91 98 100 100 100 99 90 83 76 78 81 74 74 71 63 50 44 71 71
60 53 56 58 64 65 62 62 78 97 96 84 74 73 71 84 96 95 93 93 91 92 83 88 99 90 99 100 98 97 94 87 80 75 70 64 70 64 67 63 55 56 64
60 61 62 62 68 70 68 75 80 87 95 96 100 99 87 84 86 92 89 96 100 97 89 99 95 95 84 97 100 95 92 95 89 81 72 77 78 77 74 70 63 61 60
59 64 60 64 67 71 70 63 64 68 67 65 72 85 100 100 100 100 100 100 100 100 100 100 100 97 99 99 93 92 84 91 87 79 70 86 92 94 93 88 77 74 71
56 55 56 58 59 61 64 66 64 64 67 65 66 66 70 76 89 89 98 100 100 100 100 100 100 100 100 100 99 95 93 93 81 73 80 93 94 96 98 100 93 81 85
59 57 55 58 60 61 60 59 60 63 65 66 66 67 63 64 70 78 84 92 100 100 100 100 100 100 100 100 96 91 81 69 74 76 85 92 94 97 96 100 100 99 98
51 48 46 48 50 55 60 62 61 62 62 63 68 69 70 64 64 67 76 90 98 100 100 100 100 100 100 91 82 74 69 69 70 71 83 93 92 89 88 91 96 98 99
46 46 46 45 47 49 51 58 66 67 69 67 65 64 70 72 68 68 70 78 90 99 100 100 100 99 90 78 73 68 64 66 66 68 76 87 94 96 95 99 94 100 100
46 46 46 49 50 54 56 59 64 68 71 72 69 67 65 68 70 71 70 66 78 85 91 98 94 85 76 69 64 72 67 66 74 80 84 82 88 90 87 89 89 100 100
50 50 48 50 53 58 62 66 67 71 73 74 72 70 72 73 71 73 73 73 75 78 80 80 79 77 73 73 72 64 66 66 70 79 83 85 88 91 86 92 98 100 100
50 52 52 51 54 59 63 67 70 72 74 75 75 77 78 78 80 76 74 73 71 75 75 76 74 72 69 65 62 65 75 79 82 86 87 82 91 85 90 100 100 100 100
54 54 53 56 58 62 68 70 72 74 75 76 78 80 80 81 85 84 82 81 74 78 78 75 77 73 74 67 68 76 80 86 87 89 92 93 82 85 91 98 100 99 100
56 55 55 58 63 68 74 75 77 78 76 80 83 83 83 84 87 92 86 86 85 84 79 82 80 80 82 71 73 74 89 90 92 96 96 99 99 100 99 100 98 99 98
57 56 59 65 69 74 78 79 79 78 79 82 84 89 90 86 88 91 91 86 88 89 87 87 85 84 85 78 79 84 95 95 97 99 99 100 96 99 99 99 96 92 89
60 64 68 69 66 70 70 82 81 81 82 81 84 95 98 92 90 94 96 95 92 94 89 89 89 91 87 80 86 94 100 100 100 100 100 97 99 99 99 95 89 87 83
66 67 68 62 60 57 70 70 77 82 83 92 91 93 99 99 96 96 99 100 100 99 100 88 89 85 86 83 91 99 98 99 97 99 100 99 96 99 98 94 89 81 72
63 64 56 60 53 58 66 59 60 61 68 72 86 88 90 99 100 100 100 100 100 100 100 94 87 87 92 94 95 100 95 98 91 94 100 100 99 96 99 91 81 72 64
57 56 55 56 53 55 59 56 54 57 61 64 71 74 80 96 99 100 100 100 100 100 100 100 100 98 97 95 94 98 96 100 92 91 92 92 98 99 96 97 80 56 53
55 56 55 54 49 50 54 54 48 53 56 60 61 64 62 73 94 99 100 100 100 100 100 100 100 100 99 99 95 99 99 100 99 90 88 90 89 93 99 90 82 72 71
56 56 56 54 49 46 50 53 55 56 58 55 56 59 59 61 64 86 100 100 100 100 100 100 100 100 100 99 98 100 99 100 100 97 82 67 86 94 86 86 98 78 72
57 59 61 56 52 53 54 53 56 60 59 57 57 59 60 59 63 70 89 100 99 100 100 100 100 100 100 97 93 93 99 100 99 99 75 64 64 67 75 90 93 85 78
51 60 58 57 56 56 57 58 57 59 61 60 59 58 64 63 68 70 75 82 98 99 100 100 100 99 99 100 97 96 96 98 100 100 88 64 54 57 58 78 88 86 86

GFSMW_925_rhum_081.txt.gz
RH
83 84 92 82 80 83 90 92 91 80 81 86 82 74 75 77 82 89 86 84 81 77 79 80 81 81 76 70 66 62 58 59 61 64 65 68 60 55 56 58 52 50 63
95 98 96 95 88 90 83 88 89 75 79 80 73 78 76 72 78 90 90 88 88 88 86 86 95 93 79 79 75 61 61 60 64 70 62 66 55 55 59 55 55 54 64
95 97 97 98 96 87 88 88 89 90 85 84 82 78 78 78 81 92 91 91 93 92 94 88 93 94 87 79 79 90 67 72 74 71 66 62 61 50 53 63 55 57 60
87 90 93 100 98 91 86 91 93 88 66 81 90 88 86 83 84 84 86 84 79 93 95 98 95 88 95 99 91 87 100 81 79 79 70 67 67 59 53 57 59 60 60
85 88 92 91 92 97 97 90 90 90 88 82 84 86 93 84 87 88 92 78 72 91 83 76 92 99 91 94 100 100 99 100 94 89 89 79 79 72 66 58 49 67 64
84 89 78 70 72 72 71 70 77 86 86 87 86 86 89 91 88 94 93 80 80 89 86 66 64 99 76 79 82 86 100 97 95 92 89 78 71 71 69 74 59 52 52
75 85 78 70 69 67 71 82 85 85 93 99 99 98 83 88 92 81 90 86 89 89 78 79 99 97 81 68 73 98 100 99 94 92 91 89 78 76 72 69 64 61 56
77 74 65 69 66 68 63 61 64 65 66 69 74 87 99 99 98 96 99 98 96 98 99 90 97 90 82 80 94 100 100 99 96 96 92 86 82 84 78 75 72 74 65
77 67 67 52 52 53 56 58 59 62 64 67 65 64 66 75 90 95 99 94 99 97 100 100 100 100 100 100 100 100 99 99 97 96 92 84 86 89 88 91 89 81 80
60 56 47 49 52 53 53 53 54 56 59 62 66 66 64 62 65 77 88 94 98 99 99 100 100 100 100 100 100 100 100 96 96 93 82 89 85 89 92 91 92 91 88
50 44 40 41 42 45 51 55 57 59 60 58 57 62 65 66 64 68 73 84 94 99 100 100 100 100 100 100 100 100 96 95 91 87 87 87 83 87 90 92 92 90 90
44 42 40 40 43 45 46 51 55 57 59 61 59 59 59 64 67 67 68 71 79 91 99 100 100 100 100 100 99 94 87 80 83 81 82 82 89 91 89 89 91 90 92
42 40 40 42 45 48 51 52 55 57 61 62 60 60 62 64 62 66 68 67 71 77 89 99 100 100 100 95 89 82 75 73 74 75 78 79 86 88 89 90 88 87 89
44 45 43 43 45 51 53 55 57 61 62 63 63 64 68 67 69 69 69 70 71 74 78 85 95 99 94 86 78 75 72 71 71 72 75 78 81 85 86 85 86 86 92
46 46 47 45 47 52 55 58 60 62 65 63 66 69 71 72 73 75 75 73 74 74 75 76 77 79 81 81 72 71 70 71 71 72 77 79 82 82 83 85 86 89 93
47 47 46 47 50 54 60 63 66 67 66 66 70 74 75 76 78 79 83 79 77 76 76 76 74 75 76 74 73 74 76 76 76 78 84 85 83 79 79 81 93 100 99
49 48 46 49 53 58 64 66 68 68 66 70 72 76 81 83 80 81 82 84 81 80 79 79 78 76 78 74 68 69 77 80 81 82 85 90 96 99 99 99 99 97 97
48 47 48 54 56 55 59 62 69 68 69 70 72 75 85 91 88 85 86 87 88 84 84 84 83 80 78 78 74 72 75 86 89 92 94 94 98 100 99 99 98 96 94
50 53 56 57 52 48 48 54 55 57 58 58 68 77 81 91 94 94 92 94 97 94 91 90 85 84 83 83 81 80 82 93 95 98 98 94 96 99 99 98 97 92 86
56 55 56 46 49 41 48 53 50 51 47 53 58 63 74 78 87 94 95 97 98 99 97 98 96 91 89 91 86 89 96 97 99 98 96 96 99 94 99 99 94 87 81
53 49 44 45 42 41 46 49 48 47 49 53 54 57 62 66 78 90 96 98 98 99 99 99 99 98 99 94 90 90 100 99 98 94 92 96 99 97 99 99 92 84 76
46 44 41 42 42 41 44 44 43 44 43 44 46 49 50 52 54 73 82 89 93 94 99 100 100 99 99 96 93 99 99 99 95 92 90 96 97 99 99 100 90 80 66
42 42 41 38 37 37 38 39 39 42 45 45 44 43 45 47 46 49 56 77 96 100 100 100 100 100 99 97 94 99 99 100 97 94 90 89 90 99 99 99 94 86 57
42 42 39 37 36 36 36 40 42 44 46 46 45 44 45 48 50 47 52 67 83 96 100 100 100 100 100 100 100 100 100 100 100 99 93 88 88 92 99 96 94 84 69
43 43 42 42 43 44 46 45 45 45 46 48 48 47 46 46 48 50 54 59 70 82 98 100 100 100 100 98 98 100 100 99 99 100 100 98 100 100 99 92 92 92 74
41 41 42 45 47 49 50 48 48 48 46 46 48 49 52 55 56 59 61 63 69 75 85 94 97 100 100 100 100 100 100 100 100 100 99 95 76 77 81 83 87 88 86

GFSMW_925_rhum_084.txt.gz
RH
89 85 90 87 88 86 90 97 91 68 87 99 77 70 71 80 86 80 83 85 84 82 86 79 74 75 77 73 70 67 65 61 59 63 60 57 59 52 54 58 58 51 58
90 89 88 88 91 94 90 98 97 88 69 87 83 79 75 67 69 77 84 81 84 81 81 81 80 79 81 79 77 75 76 64 60 63 69 82 71 62 62 58 55 54 59
91 90 90 92 94 95 98 99 99 92 91 92 89 84 83 81 78 76 77 82 81 80 84 82 85 86 86 80 72 74 80 90 71 66 72 88 82 69 60 56 56 55 60
94 93 94 99 99 99 97 100 100 98 92 89 87 91 84 82 84 88 88 87 86 81 79 77 80 83 87 84 78 82 83 96 94 84 81 71 78 69 76 64 58 56 57
91 94 95 98 97 97 100 89 98 99 86 88 87 88 85 92 89 89 96 90 86 79 82 82 84 83 81 83 73 81 91 90 95 92 96 96 93 84 76 72 65 62 58
93 93 94 93 94 93 93 95 97 84 87 85 89 97 88 90 82 86 88 89 87 81 82 92 82 80 96 84 93 98 100 99 89 98 98 97 95 93 86 91 84 71 55
92 94 94 92 85 82 84 83 82 86 96 100 100 97 94 93 88 89 97 99 82 87 84 86 93 64 83 95 99 94 93 100 97 91 91 92 93 88 92 94 91 72 58
82 83 91 88 71 63 65 66 65 65 67 68 78 88 98 96 88 79 98 84 95 90 87 85 75 66 97 87 78 94 100 100 96 99 96 95 96 94 92 89 84 83 75
86 81 70 66 59 54 54 56 58 60 62 65 65 65 67 78 91 97 99 100 96 98 98 86 86 88 83 96 98 100 100 100 98 99 100 100 96 93 91 87 81 77 87
80 61 60 59 53 55 56 57 59 60 60 58 58 63 65 63 64 69 77 88 92 95 99 99 99 99 99 100 100 100 100 100 100 100 99 98 91 86 91 89 81 82 88
54 47 45 43 44 47 52 55 57 59 59 58 59 58 59 62 62 62 65 68 72 88 94 98 99 100 100 100 100 100 100 100 100 99 96 92 89 88 88 89 87 88 90
48 47 45 46 48 51 52 55 57 60 62 61 59 60 60 60 60 63 66 66 65 72 79 86 99 100 100 100 100 100 99 99 99 95 93 89 89 87 83 86 91 90 86
47 47 48 50 51 53 54 56 60 61 62 63 64 65 66 66 67 67 65 67 68 66 75 83 90 100 100 100 100 100 99 97 92 86 77 74 81 87 90 90 90 92 89
51 52 52 51 51 54 56 58 61 63 64 64 66 70 71 72 73 74 75 73 71 71 71 77 82 91 100 100 100 98 94 86 80 77 75 74 76 79 83 87 89 88 91
53 53 55 55 52 56 60 63 66 67 66 66 70 74 76 77 76 77 78 77 77 76 74 75 78 80 88 96 94 88 80 76 74 72 71 73 75 79 84 84 86 84 83
52 51 50 52 56 60 64 66 68 69 66 69 72 75 79 82 84 82 82 83 84 81 79 77 76 77 76 77 82 84 81 77 72 69 72 74 75 76 79 85 88 87 86
52 51 53 56 58 58 63 61 69 69 69 71 72 73 79 84 89 90 88 87 88 90 86 82 80 78 76 76 74 74 75 73 74 75 77 79 78 79 78 79 81 91 98
54 55 56 58 54 50 48 56 58 58 58 64 60 67 75 79 85 91 94 93 94 94 91 88 87 85 82 78 76 75 76 79 76 77 80 84 88 90 96 95 99 100 96
57 58 58 53 48 45 44 52 53 52 52 50 54 59 61 74 78 82 86 94 96 98 99 93 92 93 88 84 80 79 78 82 83 83 87 90 93 93 98 97 100 99 94
56 54 54 44 46 40 37 41 46 49 49 51 51 54 55 63 63 74 77 87 94 96 99 99 93 92 97 95 89 86 85 92 89 92 94 97 94 93 100 100 99 94 89
54 49 46 43 44 43 42 44 47 49 45 46 43 45 46 50 51 53 58 72 79 85 83 89 89 97 98 99 99 95 95 99 96 96 91 96 94 95 100 100 95 89 86
46 44 43 42 41 41 41 43 44 42 41 43 44 45 44 43 44 47 47 51 63 82 95 98 92 95 98 98 99 99 99 100 100 97 96 93 92 99 100 100 96 92 88
43 43 42 41 39 38 37 38 38 40 43 44 46 47 46 45 44 48 50 50 55 76 80 87 97 99 98 99 99 99 100 99 100 98 93 91 90 90 99 100 99 93 76
43 43 44 44 41 39 40 42 44 44 44 45 46 47 48 48 48 47 48 50 54 64 77 80 81 89 99 98 98 99 100 100 100 100 98 94 90 90 98 100 100 98 85
44 43 45 46 46 46 48 49 49 49 48 49 49 48 48 48 49 52 53 55 56 61 73 86 86 83 90 92 100 100 99 100 100 100 100 99 100 98 100 100 100 100 89
41 43 44 46 47 45 46 50 52 49 49 48 48 50 53 54 56 59 62 63 65 72 76 84 88 86 81 92 97 99 99 99 100 100 99 100 100 100 100 100 100 99 93

GFSMW_925_rhum_087.txt.gz
RH
87 89 88 80 94 93 96 89 91 91 94 83 86 99 91 97 96 84 67 72 73 71 71 74 72 74 70 66 65 65 60 62 64 64 62 63 63 55 52 51 58 56 54
92 86 88 95 99 100 100 98 86 88 94 81 73 78 86 84 96 89 86 78 79 81 83 78 70 76 77 73 71 70 70 68 64 64 73 83 70 62 57 60 58 56 54
88 91 97 99 90 97 98 99 96 91 93 96 89 90 83 79 80 84 84 88 74 70 66 74 74 76 80 82 83 82 79 78 73 69 70 90 89 79 67 66 56 55 56
94 97 96 96 97 99 100 100 100 100 92 92 94 93 90 87 88 77 92 85 78 83 84 74 70 72 72 71 71 73 77 82 79 81 82 84 91 94 91 71 63 57 56
95 97 97 99 100 94 93 98 99 100 100 92 98 95 93 97 91 92 93 92 87 78 81 78 80 77 72 79 81 83 80 74 71 82 89 88 98 99 97 93 77 64 61
96 94 95 96 99 95 94 96 96 95 99 100 99 97 99 96 93 89 82 79 82 88 77 82 88 93 98 100 96 95 95 98 95 90 87 88 94 98 97 98 94 86 76
97 94 94 94 93 92 94 97 96 96 95 97 97 97 92 93 93 84 88 85 84 86 72 78 80 85 89 90 95 100 98 99 99 97 88 94 88 86 94 91 98 98 89
92 93 89 87 83 69 67 74 79 78 78 78 86 92 99 99 91 89 81 83 84 85 78 81 83 81 84 92 85 94 100 93 99 100 94 95 95 94 96 95 95 98 82
92 88 80 86 73 63 61 61 62 60 59 63 66 66 68 75 85 95 97 98 100 100 100 96 85 86 94 94 97 99 93 96 100 100 100 99 98 96 97 99 90 84 89
86 78 70 65 58 56 58 59 59 60 60 60 60 60 63 65 65 67 68 74 84 94 96 98 100 100 100 100 100 100 99 99 100 99 100 100 100 100 99 96 87 86 75
73 61 52 53 53 55 58 60 60 60 60 60 62 60 61 62 62 64 65 65 62 63 69 78 84 91 98 94 99 100 100 100 100 100 100 100 100 97 90 88 93 91 87
54 51 52 54 56 56 59 61 62 62 62 63 63 63 61 60 60 63 64 65 69 68 68 73 78 91 95 99 99 100 100 100 100 100 100 100 99 92 89 91 89 88 89
53 54 55 60 59 59 60 62 64 63 63 65 67 67 68 67 68 69 67 65 65 67 69 71 76 83 95 100 100 100 100 100 100 100 100 98 96 93 89 86 84 88 89
58 58 61 62 60 61 64 66 66 65 65 67 70 73 76 76 75 73 72 74 74 73 71 72 75 80 80 96 100 100 100 100 100 100 98 92 88 81 80 83 87 91 96
59 59 61 63 62 64 65 66 66 66 67 68 70 73 72 70 78 82 81 79 80 82 80 78 76 76 81 80 97 100 99 98 97 94 89 82 79 80 80 83 83 88 91
57 56 58 61 64 65 68 63 69 70 68 70 72 72 70 65 69 79 87 89 88 87 88 86 83 81 78 78 77 89 92 90 88 85 82 78 80 79 80 85 87 87 90
57 58 62 64 60 62 56 54 63 62 58 70 67 63 65 66 69 69 73 86 95 96 98 94 90 90 86 81 79 77 80 82 84 82 81 78 76 75 75 78 84 87 90
61 62 64 61 54 51 45 45 46 46 45 49 50 47 53 54 64 68 76 78 84 92 95 97 96 91 91 91 87 82 79 79 79 78 76 76 76 79 75 79 82 85 92
63 62 61 55 48 50 42 41 43 50 50 48 50 47 49 51 56 56 60 60 70 77 84 92 91 90 87 88 89 90 86 81 80 83 81 80 81 80 86 91 91 91 99
60 56 54 47 47 45 43 41 40 46 50 50 51 46 46 46 47 51 49 52 61 69 79 83 84 78 84 90 96 97 99 90 87 85 86 85 88 89 92 93 100 100 98
55 50 44 45 42 42 43 42 42 47 43 47 45 44 44 45 45 46 49 48 50 62 76 69 73 95 92 84 91 99 100 100 95 94 94 95 90 94 97 92 98 97 95
49 47 47 44 42 41 40 40 41 38 40 40 40 40 43 45 47 47 47 49 51 54 68 74 72 73 98 99 98 98 99 100 100 100 97 94 92 92 94 95 98 99 99
45 44 45 45 44 44 41 43 43 43 44 45 45 46 46 47 48 50 50 50 51 54 60 80 83 76 75 78 97 100 98 98 100 100 99 98 95 95 96 94 100 99 100
46 46 47 49 48 46 46 46 47 49 50 51 50 50 51 52 52 49 51 54 56 59 63 69 77 86 88 77 80 84 88 93 98 98 100 99 98 100 100 100 100 100 98
47 46 47 49 49 48 48 47 46 50 54 53 51 51 49 48 51 52 56 61 64 67 73 80 87 92 94 88 85 79 94 100 99 99 100 100 100 100 100 100 100 100 98
46 46 46 49 50 51 50 49 50 50 51 52 50 46 53 53 56 59 61 63 71 74 78 78 80 80 84 74 76 82 83 89 94 100 100 100 100 100 100 100 100 100 100

GFSMW_925_rhum_090.txt.gz
RH
50 85 96 83 80 79 86 82 82 77 77 84 87 89 83 98 94 83 83 89 84 77 74 68 66 66 62 57 56 55 55 57 58 62 65 64 62 62 60 58 55 56 59
94 92 99 100 100 95 94 96 92 91 93 83 87 94 86 97 99 94 92 78 63 67 70 64 62 61 60 62 64 64 61 59 62 68 73 83 73 66 63 60 59 57 57
87 94 96 99 100 99 97 99 98 97 94 85 90 90 90 95 100 100 99 88 72 65 67 64 67 74 75 73 69 66 68 71 70 66 70 95 91 81 73 70 65 61 60
98 96 97 98 100 99 97 100 99 100 99 95 97 91 94 98 96 100 97 89 81 75 71 69 81 77 78 76 75 78 78 78 84 85 75 71 73 88 84 75 71 68 73
96 97 96 98 99 100 99 100 100 99 100 99 98 100 99 100 99 99 100 99 97 93 86 85 83 79 78 76 81 80 88 86 75 82 85 98 95 89 94 95 90 76 72
94 94 97 98 98 100 100 100 100 100 97 100 97 100 100 100 100 100 100 100 99 94 92 87 84 89 87 88 84 81 77 75 86 88 90 94 94 99 97 97 93 84 83
94 95 96 96 96 96 99 98 92 96 96 100 99 100 96 100 100 98 95 96 95 94 94 90 91 86 88 88 86 83 85 85 97 98 100 99 92 84 92 86 91 97 97
94 95 95 96 95 93 89 89 88 86 84 83 88 94 97 96 99 100 100 95 95 95 97 90 89 88 86 85 86 85 91 99 100 100 98 98 100 99 90 90 88 99 99
94 94 93 94 87 81 75 76 72 71 69 69 68 68 71 85 92 92 95 97 100 100 100 100 100 100 87 89 99 89 90 99 100 97 100 98 99 100 100 96 91 95 99
91 90 88 91 77 72 65 60 61 64 64 63 62 64 65 67 72 78 81 76 76 83 88 89 94 99 100 100 100 98 95 95 92 91 99 100 100 99 99 98 95 93 79
87 86 81 82 64 62 63 62 61 63 64 65 64 62 63 63 62 63 65 66 67 67 68 77 80 89 98 99 100 98 99 99 100 99 100 100 100 100 100 100 100 98 86
72 65 60 60 62 64 65 65 63 64 67 67 67 68 67 66 65 66 66 66 67 67 71 70 75 81 83 96 95 96 98 99 100 98 100 100 100 100 99 100 99 93 91
56 58 61 65 66 66 68 67 66 67 67 67 68 68 69 70 74 75 74 74 74 72 67 70 74 77 84 86 98 99 100 100 100 100 100 99 100 100 100 95 91 94 91
59 62 67 69 68 67 68 65 66 67 68 70 72 74 72 70 75 78 79 79 79 78 80 80 79 78 77 82 86 99 99 100 100 100 100 100 100 100 99 98 93 92 93
62 62 65 70 68 68 67 60 66 66 66 70 68 71 66 59 57 58 65 72 82 88 90 88 85 82 81 80 82 84 94 99 99 100 100 100 100 100 99 94 89 89 95
61 61 64 65 68 67 59 48 56 56 49 60 57 43 40 42 50 57 63 60 56 61 83 98 96 90 90 89 84 82 83 89 94 92 95 96 96 95 92 90 89 88 93
62 63 66 68 62 62 50 47 46 46 42 44 47 44 42 43 43 47 44 48 54 58 63 76 87 91 88 89 90 89 87 84 83 88 90 88 86 86 85 85 86 84 89
64 64 67 65 56 53 46 43 40 44 48 46 49 48 43 42 39 40 46 45 49 54 67 71 74 76 80 80 84 87 90 90 86 83 83 85 85 82 83 84 90 91 90
66 66 64 59 48 49 46 42 40 39 42 44 48 50 45 43 41 42 43 47 49 48 54 66 80 82 70 76 82 94 94 90 94 87 82 85 84 82 83 84 86 88 89
62 58 54 50 46 44 47 49 48 48 44 44 46 45 43 43 44 44 44 45 48 49 52 53 66 64 58 77 94 98 100 100 99 94 89 85 87 84 86 86 86 96 90
58 53 47 47 45 44 43 42 42 42 42 41 43 44 44 46 47 48 49 49 49 50 51 52 56 66 69 68 96 99 100 98 100 100 99 94 90 89 90 91 92 91 90
52 48 47 46 46 46 45 43 43 43 44 46 48 49 50 50 51 53 53 52 52 54 55 59 56 55 63 72 81 79 94 99 100 100 100 99 96 96 95 97 99 96 96
46 46 48 49 48 46 47 48 47 50 50 52 52 53 53 51 50 54 52 54 56 59 62 63 68 66 65 79 84 82 82 83 94 94 99 100 99 98 100 99 100 100 100
50 51 50 50 49 46 48 53 52 49 50 52 53 53 53 53 48 47 50 54 60 67 73 76 77 79 87 85 72 71 84 83 81 85 93 99 100 99 99 100 100 100 100
48 47 49 51 51 50 50 48 46 49 51 52 51 51 48 49 51 53 56 62 64 71 74 78 80 85 91 84 85 80 76 78 82 86 93 100 98 100 100 100 100 100 100
48 48 49 50 48 49 49 47 47 50 50 52 51 50 55 57 60 60 58 58 72 73 75 76 77 79 82 80 80 79 77 76 85 83 82 98 100 100 100 100 100 100 100

GFSMW_925_rhum_093.txt.gz
RH
61 47 57 83 84 74 76 87 89 79 84 89 96 95 92 85 94 90 98 100 100 100 100 97 79 76 92 78 62 68 71 68 57 60 68 69 66 64 62 62 62 62 57
94 97 96 99 99 100 96 91 92 94 94 95 90 90 84 81 81 87 91 95 98 99 90 95 88 81 79 73 73 72 64 60 58 68 77 84 74 65 64 64 62 60 59
96 94 90 94 93 93 97 98 97 92 86 92 94 92 93 97 92 96 89 84 90 94 96 91 80 75 71 71 71 64 64 66 63 66 71 94 91 83 75 70 68 63 63
86 87 92 94 98 98 91 97 94 96 99 98 100 100 100 96 97 90 100 96 91 93 92 91 79 76 74 69 65 63 67 70 71 76 70 75 76 87 84 77 75 68 63
96 96 95 99 100 100 99 100 99 100 100 100 99 97 99 100 96 90 100 98 92 91 93 80 74 78 74 80 69 84 84 81 86 78 79 84 86 85 87 92 90 80 71
93 92 95 98 100 100 100 98 100 98 100 98 100 100 96 100 100 99 100 100 100 97 94 86 90 90 92 93 73 70 72 77 98 97 93 81 88 96 100 98 94 91 81
92 93 93 97 98 100 100 96 96 91 93 94 96 99 100 100 100 98 98 100 100 100 97 93 90 85 87 86 92 95 92 92 89 86 87 88 94 94 93 94 93 96 92
92 94 96 98 99 100 96 97 94 88 86 87 86 93 100 100 100 100 100 100 99 94 98 91 93 96 98 97 94 97 98 98 93 90 91 94 99 100 100 94 92 99 99
94 96 95 99 98 94 89 85 84 79 70 72 78 81 88 92 96 98 95 98 99 99 100 100 99 98 100 96 100 96 94 93 92 92 98 100 100 100 100 100 100 94 99
93 93 95 95 90 76 69 67 70 71 67 63 64 66 66 68 74 78 78 81 82 85 92 96 97 97 100 100 100 100 100 100 95 96 96 100 100 100 100 100 100 100 91
93 93 92 76 65 67 68 67 68 69 69 66 66 66 66 65 66 68 69 70 69 71 73 72 78 80 81 92 97 100 100 100 100 100 100 100 100 100 100 100 100 100 94
92 86 72 69 70 71 68 69 69 72 76 75 69 65 65 69 72 74 73 70 70 70 72 73 74 76 82 84 96 99 95 99 99 99 99 99 100 100 100 100 100 100 99
60 64 68 71 73 72 70 70 70 70 71 68 67 65 65 64 66 70 74 78 78 78 76 73 75 76 77 82 86 90 100 99 100 100 100 99 100 100 100 100 100 100 100
62 66 71 74 73 70 64 66 68 65 72 68 64 59 55 58 59 60 55 53 60 68 77 86 88 88 85 85 85 89 93 100 100 99 100 100 100 100 100 100 100 100 100
62 64 69 74 71 69 55 53 54 47 54 57 45 45 42 39 39 40 40 43 41 45 53 55 64 83 87 90 92 88 85 87 91 97 98 99 99 100 100 100 100 100 100
61 61 64 66 69 68 54 48 47 47 43 44 50 46 40 38 38 39 43 44 46 47 50 53 56 60 72 87 90 92 93 90 87 88 88 93 98 99 99 100 100 100 99
63 62 65 70 65 61 52 47 40 37 39 43 44 46 44 40 39 37 37 38 43 45 46 49 62 70 68 59 86 95 96 93 92 90 87 87 90 93 98 100 100 100 97
64 65 70 68 59 51 50 44 41 38 38 39 39 41 44 42 40 40 40 41 41 44 45 45 51 58 68 55 55 88 99 98 88 85 91 88 84 84 89 93 99 100 100
66 66 66 61 49 47 47 45 45 42 40 40 42 42 43 44 44 44 45 45 47 47 48 48 48 50 62 60 65 94 97 98 99 96 90 94 88 83 85 90 94 94 99
65 63 57 50 46 46 48 47 46 44 44 44 44 47 47 48 49 50 50 50 49 49 48 47 47 53 56 57 69 81 92 96 88 90 98 99 100 92 89 94 92 96 91
59 54 49 49 49 48 48 47 48 46 48 49 50 50 51 52 52 53 52 52 50 48 48 49 50 52 51 54 67 84 84 82 92 100 96 91 98 100 98 99 96 92 84
55 50 50 50 49 49 49 50 50 52 52 50 49 51 55 56 54 54 54 54 52 52 50 52 54 50 44 48 67 92 86 81 83 85 98 93 98 98 100 100 100 99 98
48 50 52 52 47 47 51 54 54 51 47 44 44 47 49 50 50 54 53 56 57 60 63 66 68 68 66 74 79 86 80 81 90 80 81 96 96 98 98 99 100 100 100
54 51 48 48 48 47 48 50 47 47 50 51 50 49 49 53 51 49 52 56 57 60 73 80 84 81 80 82 79 79 78 80 79 77 80 86 92 96 99 100 99 100 100
50 48 49 50 48 47 49 49 50 52 54 55 53 53 53 54 55 58 60 64 66 70 79 79 80 86 90 85 89 83 79 79 76 69 80 81 84 100 99 100 100 100 100
48 46 47 52 52 55 55 54 54 56 60 61 60 60 65 64 66 66 65 59 71 73 75 76 77 79 81 78 78 78 73 76 74 69 76 75 75 92 100 100 100 100 100

GFSMW_925_rhum_096.txt.gz
RH
61 57 55 48 39 75 76 73 77 78 85 93 97 100 99 100 93 91 86 99 90 87 100 99 99 100 99 92 81 96 97 86 78 75 69 62 56 54 53 56 63 64 63
91 88 87 85 98 100 98 92 89 92 94 95 95 96 94 92 89 90 87 93 93 87 100 98 98 94 79 79 73 74 93 83 75 74 80 87 75 69 67 66 65 63 62
93 93 89 90 95 99 100 100 100 99 100 99 99 100 100 100 98 94 95 86 92 87 90 100 100 100 96 93 94 92 84 72 73 72 70 94 92 83 73 68 66 64 64
93 92 94 97 99 100 100 99 99 92 90 89 100 98 99 100 98 98 96 90 94 91 86 96 97 100 98 87 75 90 81 77 80 79 69 74 75 88 87 79 76 71 67
96 97 97 100 100 99 100 100 100 99 100 99 99 98 100 94 99 100 98 88 92 100 97 98 97 96 98 100 93 85 71 80 77 71 72 81 86 87 86 85 83 78 70
92 90 95 97 100 100 99 95 95 100 98 100 99 100 98 98 96 100 100 98 100 100 100 100 100 100 100 100 99 95 71 75 76 80 79 73 84 94 99 99 92 88 69
92 94 95 96 98 100 100 100 94 96 90 95 99 99 100 99 99 100 100 99 100 100 100 99 100 97 98 96 93 92 80 76 80 93 97 82 98 94 90 93 92 95 82
92 93 94 97 99 100 99 98 100 90 83 83 86 90 98 100 98 100 100 99 99 100 100 95 100 94 95 94 95 87 88 83 90 95 96 99 98 94 95 97 94 93 97
94 94 94 97 97 98 98 94 87 84 78 74 73 74 76 82 88 87 91 96 97 100 98 100 100 98 99 89 93 94 93 91 97 99 99 99 100 99 100 100 100 98 97
93 93 91 92 90 84 80 80 77 75 71 65 66 67 65 67 70 69 73 78 82 86 86 87 93 99 98 100 100 100 100 100 100 100 99 99 99 98 100 100 100 100 99
93 94 92 83 75 70 68 69 70 72 72 68 67 69 72 73 73 74 73 73 70 71 71 75 76 81 86 89 92 100 100 100 100 100 100 100 100 100 100 100 100 100 100
91 90 86 70 73 73 73 74 74 75 74 66 57 57 57 58 58 62 71 76 79 78 76 72 71 75 77 79 83 86 95 100 100 100 99 100 100 99 100 100 100 100 100
65 66 70 77 78 73 71 72 68 76 69 55 43 39 41 43 46 46 46 42 41 44 52 72 81 83 83 84 83 86 88 94 100 100 99 100 100 100 100 99 100 100 100
65 69 73 77 76 68 60 59 50 58 57 40 38 39 40 39 38 36 34 33 34 36 41 44 46 56 79 88 96 94 91 87 85 88 97 100 100 100 100 100 100 100 100
66 66 71 76 73 66 52 52 52 47 46 48 47 46 42 40 37 37 38 37 36 37 36 35 38 47 54 66 93 96 95 91 91 89 86 87 96 100 100 100 100 100 100
66 63 64 69 69 67 54 44 40 41 41 42 46 48 42 40 38 37 37 35 36 38 38 37 40 42 45 53 54 80 91 90 92 90 89 90 86 87 95 100 100 100 100
67 66 66 72 67 61 55 47 43 39 38 40 42 44 46 43 44 42 40 39 39 38 36 35 38 39 36 42 52 71 74 82 100 100 96 87 86 89 86 91 96 100 100
67 66 71 70 61 52 52 46 45 41 40 41 42 43 47 45 45 46 46 46 47 47 46 44 44 46 43 56 78 78 62 68 84 91 98 98 93 85 90 88 93 98 100
68 68 68 62 50 47 46 45 42 42 44 47 48 48 51 51 52 53 53 52 53 51 48 46 43 46 42 50 51 78 82 78 82 88 81 90 98 97 97 96 97 96 100
67 64 56 47 48 51 51 50 50 49 50 51 50 50 51 53 54 54 52 51 52 52 48 44 41 41 43 45 48 72 78 87 86 80 82 91 82 87 98 100 100 100 96
62 57 54 52 52 52 50 49 48 50 53 53 49 45 43 50 54 55 54 54 54 52 48 45 40 40 42 46 55 74 84 90 87 81 78 81 93 82 86 96 100 100 97
56 52 50 52 52 48 47 50 50 53 50 46 45 44 44 46 50 54 54 52 54 56 54 53 49 43 43 54 67 85 83 83 80 80 87 78 76 87 93 91 94 99 100
50 52 53 50 45 46 48 48 45 47 47 48 49 50 49 48 50 57 54 56 58 62 64 71 73 71 67 67 70 86 85 84 86 88 78 78 84 88 83 93 98 96 100
54 51 48 47 47 46 49 52 52 53 54 54 53 52 53 55 54 54 57 63 63 65 73 76 80 85 87 83 81 82 82 82 82 80 76 73 73 84 85 89 89 98 100
51 49 48 49 48 50 51 50 53 56 56 55 57 59 61 64 66 66 67 71 71 75 81 80 80 85 86 87 84 78 77 77 74 87 92 70 73 77 80 90 98 98 100
51 48 47 50 51 52 51 50 56 60 64 69 71 71 76 77 77 78 78 74 73 73 76 79 81 83 82 78 77 77 76 76 74 72 97 80 73 74 70 77 85 99 100

GFSMW_925_rhum_099.txt.gz
RH
81 82 84 83 67 52 43 41 70 70 87 91 96 99 97 90 95 96 76 78 78 73 98 99 99 97 99 96 100 100 97 97 85 91 85 80 67 63 52 57 54 52 56
83 83 83 86 88 88 97 95 94 94 92 92 92 93 90 91 90 89 89 88 87 92 100 99 98 98 100 98 100 100 97 88 92 85 76 74 60 67 63 59 56 54 57
89 91 90 97 95 95 98 99 99 100 100 99 99 99 100 99 96 93 98 96 89 86 99 97 97 100 100 99 98 98 92 93 96 88 76 89 77 70 60 62 57 62 65
90 90 94 97 100 100 100 100 97 98 100 97 97 99 96 96 94 97 88 86 94 96 95 99 97 95 100 100 100 99 96 88 88 97 83 66 76 85 80 78 73 70 69
92 94 95 99 100 100 100 100 100 100 99 99 99 100 100 97 92 97 98 99 95 99 96 100 100 98 100 92 100 99 99 96 89 87 83 89 81 81 88 83 83 80 76
90 88 94 97 100 100 99 96 94 95 97 100 100 100 100 100 99 100 98 96 99 99 100 100 100 100 99 88 95 96 92 94 98 90 81 75 75 77 88 93 90 90 72
90 90 93 96 98 100 100 99 91 90 90 93 97 100 100 99 100 99 100 100 99 99 100 100 100 100 100 99 100 100 100 96 88 82 90 86 81 70 85 84 79 96 87
90 92 92 97 98 100 98 100 98 85 86 78 81 81 90 90 91 94 97 98 100 100 98 100 100 100 100 98 100 98 97 86 90 88 86 91 86 83 87 88 98 96 97
93 92 93 97 99 100 100 99 100 90 85 83 84 80 80 79 80 80 82 86 89 93 96 98 99 100 99 100 100 100 99 96 88 88 86 87 87 87 89 93 100 98 96
92 92 93 94 95 92 90 90 85 81 76 71 77 79 73 68 69 72 74 74 75 77 84 84 84 87 92 96 93 98 99 100 99 96 96 98 98 92 96 100 94 100 98
93 92 88 85 83 78 74 75 75 72 60 52 48 48 49 44 45 46 50 59 64 68 70 74 76 79 82 85 88 90 88 91 98 100 100 100 100 100 100 100 100 100 100
88 83 72 74 76 73 73 72 74 63 50 39 35 38 38 38 40 39 38 36 35 34 38 48 65 77 79 81 83 88 90 92 93 99 99 98 99 99 99 100 100 100 100
64 62 68 75 78 63 62 53 66 64 46 36 32 34 35 34 36 37 36 34 32 32 31 32 36 42 63 82 88 94 90 88 85 86 94 99 100 99 99 99 100 100 100
64 66 69 74 76 60 56 52 48 48 48 44 41 40 40 37 34 32 30 30 32 32 31 33 35 35 35 36 35 40 52 63 75 86 88 89 98 99 99 100 100 100 100
67 67 68 72 73 62 49 44 44 44 44 42 42 44 41 38 37 36 35 34 32 31 31 28 26 29 31 54 79 66 52 44 43 59 75 84 87 89 89 98 99 100 100
67 66 67 71 70 66 55 46 40 38 39 41 44 47 45 42 42 42 42 39 38 37 36 35 35 34 35 35 80 81 74 76 86 83 96 77 64 80 84 88 88 98 100
67 67 66 69 68 61 55 48 48 46 43 41 42 44 47 47 46 46 45 43 43 43 41 40 40 38 37 51 78 79 76 62 57 85 89 88 93 94 87 80 86 88 89
68 69 70 71 64 52 53 48 46 43 42 43 43 44 46 48 49 52 52 51 51 50 49 44 40 37 30 34 67 74 75 71 68 68 70 92 90 87 98 100 98 91 90
68 67 67 66 53 48 49 48 44 44 46 50 53 53 53 54 56 57 58 56 56 55 54 50 44 42 33 32 35 66 70 70 76 83 86 81 85 94 82 86 97 100 94
68 69 64 53 48 49 48 48 50 51 54 57 54 48 44 43 43 46 49 51 54 54 53 48 44 41 38 32 37 71 77 80 85 88 84 80 74 73 87 92 99 94 97
68 60 52 50 52 54 53 52 52 53 52 46 42 41 43 46 48 49 50 54 54 52 50 51 47 44 41 38 45 76 79 86 88 86 81 76 82 80 74 79 88 95 96
65 59 56 57 57 52 49 45 42 46 47 48 48 48 48 51 52 54 54 53 55 59 58 58 55 59 51 54 69 83 82 80 80 83 82 88 79 76 77 81 76 86 95
56 55 54 50 47 45 43 46 47 49 50 49 48 48 50 52 57 60 59 62 61 67 72 69 70 71 75 76 69 84 85 84 85 89 87 82 77 78 78 78 84 81 86
57 54 49 46 43 44 47 50 51 52 55 54 55 55 58 65 62 66 71 75 78 79 74 76 80 84 86 89 88 81 81 80 82 76 75 79 82 72 73 79 85 86 100
53 49 46 46 47 52 52 50 56 60 61 63 65 68 73 73 76 75 76 80 79 80 81 77 79 84 84 82 79 80 80 82 80 81 95 97 89 67 69 70 75 78 92
51 48 45 49 52 53 51 54 60 66 71 76 76 81 82 86 84 82 80 78 83 82 81 81 79 80 78 76 73 78 78 72 76 78 83 84 85 78 70 77 83 83 92

GFSMW_925_rhum_102.txt.gz
RH
56 60 68 70 73 68 65 51 41 41 59 78 93 89 83 83 85 86 87 84 80 77 79 82 83 86 82 77 81 84 93 98 98 99 97 94 88 75 66 55 52 56 55
60 66 78 88 88 80 73 71 61 71 82 97 96 87 86 86 86 88 91 89 88 87 85 85 87 84 89 82 82 88 93 97 96 91 81 77 67 73 65 65 66 61 57
83 79 84 91 98 98 100 99 100 100 99 98 98 99 98 99 98 96 95 93 96 96 92 94 96 97 92 92 86 90 95 94 97 94 78 86 69 48 48 59 52 56 65
77 79 91 94 100 100 98 100 100 99 99 100 99 98 90 82 82 89 89 86 89 88 89 92 95 95 98 99 96 98 97 96 95 95 90 71 62 65 73 75 69 69 68
85 88 92 95 99 100 99 100 100 100 100 100 99 99 97 94 99 100 99 100 99 100 100 97 97 98 99 100 99 100 100 100 97 98 93 83 88 85 85 75 79 82 74
85 85 90 94 97 100 96 92 87 91 97 100 100 99 100 100 100 99 99 99 100 100 100 98 97 99 97 99 99 93 100 100 100 100 94 92 83 87 86 91 84 84 69
88 88 89 95 98 99 99 92 90 89 92 93 91 97 96 99 99 100 100 100 99 100 99 100 99 100 100 100 100 100 100 98 97 99 99 99 94 91 91 90 84 85 74
88 91 92 96 99 100 100 100 94 92 83 81 83 91 85 97 96 91 96 99 96 100 100 96 98 99 100 100 100 93 100 100 100 100 98 96 93 89 92 94 92 93 90
90 92 92 97 99 100 100 95 98 85 81 84 79 80 72 71 83 74 82 84 80 82 93 93 91 93 98 99 100 100 100 100 98 100 95 92 90 90 85 90 94 92 92
89 89 91 95 95 98 99 95 94 74 72 70 66 65 70 69 62 60 64 61 65 73 80 84 83 80 83 89 93 98 98 96 98 100 100 96 99 98 92 95 98 97 96
88 89 83 74 72 85 74 76 70 62 54 54 56 52 51 52 50 48 49 52 51 48 52 57 70 83 84 88 89 90 89 91 94 97 97 100 100 100 100 99 99 100 100
77 66 66 64 65 62 59 66 68 54 55 46 44 47 43 42 41 45 43 42 42 44 44 45 47 51 62 68 75 80 86 89 91 92 89 93 95 98 99 99 99 100 100
63 53 52 55 52 45 47 44 50 52 49 46 41 41 40 39 39 39 41 41 43 42 42 43 45 45 48 50 48 48 52 55 64 77 86 89 90 94 99 98 99 100 99
50 48 50 52 54 47 43 40 43 46 47 45 43 42 42 41 41 41 40 40 41 41 41 40 44 49 49 55 62 61 57 56 58 60 73 76 86 89 92 95 99 100 100
48 48 50 49 52 50 43 42 43 46 47 45 45 48 47 47 47 47 47 47 46 45 44 43 42 42 41 45 68 65 60 62 59 58 61 72 84 88 99 99 94 96 100
48 48 49 52 53 52 48 46 45 45 45 43 44 50 51 49 50 50 50 48 46 46 47 46 46 45 42 40 67 74 60 60 58 56 60 64 71 71 84 95 99 100 99
46 48 48 51 54 52 51 47 48 48 44 46 46 49 51 51 50 49 47 47 47 46 48 46 44 42 40 51 61 72 58 56 56 61 63 61 60 76 72 73 84 93 98
46 47 49 54 58 51 53 50 53 48 46 46 47 49 50 49 49 51 51 51 50 50 51 50 49 49 46 54 61 64 56 54 57 60 62 62 59 57 76 76 72 76 86
42 46 52 57 53 46 50 51 49 49 48 48 52 53 53 52 51 52 54 56 57 57 58 58 56 56 53 54 60 62 56 57 56 51 55 63 65 60 70 68 72 67 68
52 57 60 54 44 48 52 50 50 49 47 51 54 54 54 54 51 52 54 57 59 58 59 58 58 58 60 55 56 64 58 53 51 52 54 60 68 72 79 74 64 63 64
60 61 53 45 48 53 52 48 48 46 51 58 56 54 52 53 54 57 58 61 62 59 60 57 52 46 45 50 58 68 68 60 58 56 54 56 63 78 81 78 70 67 75
61 54 51 52 57 53 52 44 42 51 53 53 52 48 49 52 53 56 57 55 54 51 49 46 45 45 46 54 65 74 77 76 70 62 58 59 68 78 77 77 73 77 77
60 54 51 52 50 51 50 44 44 50 51 51 49 50 52 53 57 58 56 56 54 54 52 51 51 52 57 63 68 73 76 79 79 68 68 74 75 75 74 70 74 74 79
53 54 50 44 41 45 50 49 50 54 57 53 52 53 55 60 59 62 61 59 58 59 60 62 62 63 66 67 68 69 77 82 81 78 77 77 82 83 82 74 67 72 77
54 51 44 41 41 50 51 51 56 60 58 56 56 56 59 61 64 62 61 64 65 71 74 72 72 76 74 72 78 91 85 78 75 74 79 84 77 70 68 67 67 70 73
51 47 44 43 50 55 53 58 63 65 65 63 59 63 68 64 62 62 63 67 75 80 80 80 80 81 79 81 88 91 84 78 77 84 82 78 77 73 73 71 70 72 71

GFSMW_925_rhum_108.txt.gz
RH
60 62 72 76 81 88 91 90 97 91 88 52 41 40 45 58 75 82 83 76 70 70 69 68 69 69 69 69 69 70 76 82 83 94 96 97 95 94 92 85 72 61 50
61 67 73 83 90 96 99 95 96 91 96 93 76 38 53 60 64 71 78 76 78 79 80 82 82 82 79 77 75 73 75 78 82 89 86 91 84 98 99 95 83 73 58
73 68 75 86 92 97 99 97 98 96 100 92 91 69 64 67 70 75 86 85 89 89 88 88 86 90 93 89 87 85 81 85 84 82 86 96 88 85 84 98 90 80 75
74 71 80 87 94 97 93 94 95 96 99 99 96 93 100 91 93 96 99 99 97 91 91 93 94 96 94 97 100 97 89 87 86 88 85 85 82 90 87 79 90 85 82
74 78 84 88 94 97 97 88 90 92 98 99 99 99 100 100 99 99 96 96 97 97 98 98 99 98 97 98 99 99 99 98 97 90 89 91 94 96 93 89 84 80 79
78 77 83 88 94 95 92 92 89 88 89 97 99 99 100 97 96 90 92 92 93 93 93 95 97 93 90 91 99 99 99 99 98 99 97 96 88 84 95 97 89 90 86
82 84 87 91 94 98 98 94 90 85 79 82 86 97 99 88 87 96 90 76 71 71 71 77 85 91 89 90 93 95 92 99 100 100 97 98 97 92 91 91 91 95 94
82 86 88 92 96 96 93 86 85 76 62 60 57 64 66 61 64 73 80 75 49 53 48 45 57 67 66 74 81 98 92 94 96 100 100 100 100 100 99 99 95 99 98
84 86 85 88 89 92 82 82 69 64 61 52 46 44 44 45 44 45 45 40 34 41 43 38 38 40 47 51 61 76 82 91 94 97 97 100 98 99 100 100 100 99 99
84 87 84 80 74 77 62 62 55 47 43 40 41 42 41 38 39 38 37 37 36 35 35 38 37 37 40 46 44 48 50 70 87 86 86 95 96 95 98 96 100 100 98
85 86 82 69 58 54 53 53 54 44 40 40 38 38 39 37 37 36 36 37 38 37 36 36 36 41 40 45 51 52 53 54 56 67 70 79 77 91 93 92 96 99 100
81 80 73 59 51 47 43 39 46 42 41 39 36 35 35 34 34 36 36 36 37 37 37 36 36 37 40 42 45 54 59 56 55 55 53 60 71 80 65 83 95 96 98
74 74 65 56 48 41 36 35 34 36 38 37 36 36 36 37 38 39 41 41 40 39 38 38 37 37 37 38 39 39 53 55 54 54 52 54 61 67 59 88 79 95 96
72 68 60 49 46 44 36 33 33 35 36 36 37 39 42 42 42 43 43 41 39 39 37 38 38 38 37 37 36 39 42 52 52 51 53 52 57 58 66 83 81 88 93
63 57 54 52 47 46 40 35 34 36 37 36 37 38 42 42 44 44 41 40 40 42 41 41 42 42 40 36 47 58 62 52 51 46 50 53 55 52 69 67 75 78 78
54 50 48 48 48 47 45 39 39 39 38 37 38 40 42 42 40 39 40 40 42 42 42 42 43 43 43 46 48 58 61 50 44 50 50 52 56 52 57 59 67 72 79
53 47 49 48 47 48 46 43 40 41 40 39 41 41 42 41 41 42 43 44 45 45 46 47 49 49 49 52 53 58 61 62 54 52 50 52 54 48 54 60 69 61 66
49 46 46 44 47 48 48 44 43 43 42 42 42 42 42 43 44 44 45 46 47 50 52 54 56 56 55 58 60 62 65 59 60 57 53 49 47 46 55 62 72 75 72
50 42 40 44 50 50 47 44 43 45 44 41 41 43 43 44 46 47 48 50 53 56 58 59 59 57 55 55 57 54 54 64 66 59 52 50 50 49 55 66 72 76 71
44 47 48 50 50 44 42 43 45 46 41 40 42 42 45 47 46 46 47 49 53 56 56 54 52 50 49 42 47 49 59 68 72 73 73 69 64 59 58 62 70 79 80
50 52 52 50 44 41 44 47 44 41 40 40 39 42 42 43 43 44 46 49 51 50 50 49 49 48 49 51 56 60 64 68 73 74 73 74 71 69 68 71 80 91 75
58 55 51 45 45 47 47 44 39 37 38 38 39 40 42 42 44 46 49 50 52 53 53 52 52 54 58 61 66 68 68 70 72 75 80 79 74 69 77 77 79 71 71
60 51 49 52 52 49 42 36 35 37 38 40 42 43 44 46 48 51 52 54 55 54 56 58 66 72 74 73 74 73 73 77 78 82 77 73 74 75 76 76 74 77 84
60 51 50 51 47 42 39 36 39 39 40 45 46 47 48 49 53 54 54 53 54 58 63 74 81 83 85 82 78 83 93 91 92 92 94 96 84 81 81 78 77 76 79
57 51 49 46 41 37 37 39 40 42 48 50 51 52 51 55 58 57 54 56 60 64 70 72 77 83 84 84 84 80 88 90 88 83 89 90 92 92 89 90 88 84 89
54 52 48 43 37 37 41 43 43 49 53 57 58 57 61 63 61 58 60 64 67 70 71 72 72 74 75 73 80 78 75 73 77 87 98 92 87 88 86 84 85 84 78

GFSMW_925_rhum_111.txt.gz
RH
67 68 78 83 84 81 91 94 94 93 89 100 99 83 74 43 38 54 68 75 76 80 90 81 79 75 75 75 74 74 74 75 80 89 91 92 86 86 90 92 85 79 74
75 70 73 80 90 81 87 95 98 96 95 99 99 100 82 68 70 59 66 79 97 99 100 93 85 87 84 83 84 88 89 85 82 85 88 87 69 77 74 84 95 89 83
85 79 75 85 92 95 94 94 95 98 99 99 100 95 72 63 67 74 83 100 99 100 96 90 88 87 91 97 100 99 99 100 94 89 89 92 86 85 73 88 97 93 90
77 74 84 88 94 94 94 89 94 93 91 98 99 100 100 99 100 99 99 99 100 97 94 92 89 90 94 95 97 99 97 99 97 91 91 91 87 88 82 76 78 80 92
81 83 86 88 94 92 92 89 84 84 84 93 98 100 99 99 99 100 97 97 100 97 97 93 91 87 92 93 95 88 92 97 100 100 92 87 93 97 94 90 75 81 86
81 81 87 90 93 90 87 82 74 72 69 74 90 97 97 96 98 95 89 76 68 67 70 78 80 82 82 87 94 95 91 82 90 99 100 98 86 75 86 90 84 82 77
84 87 89 91 94 90 86 85 72 59 56 50 53 57 59 64 71 75 66 55 53 42 41 44 48 48 48 48 66 82 89 97 92 96 100 99 100 100 91 87 85 86 86
84 86 87 88 92 90 82 72 64 54 48 46 43 40 43 44 45 42 39 39 37 42 39 39 39 42 48 52 54 56 55 75 89 95 92 98 96 98 100 99 97 96 93
82 86 84 85 85 85 68 72 52 45 43 40 41 40 37 37 38 37 38 39 38 36 34 36 36 36 38 48 51 56 62 64 70 82 86 98 94 91 100 97 100 98 99
86 85 86 83 76 72 59 57 51 36 37 37 36 37 36 36 35 35 35 35 35 36 36 36 35 34 35 38 42 46 55 57 65 78 78 87 94 95 97 92 99 100 98
84 83 85 80 71 62 48 43 48 41 34 35 36 35 35 36 36 36 37 37 36 37 37 35 34 35 34 37 38 31 41 53 58 58 58 61 69 84 68 83 94 95 99
84 86 84 76 68 56 44 40 40 43 39 37 36 36 36 36 37 39 40 41 40 38 37 37 36 37 36 37 40 37 29 40 53 56 56 55 62 73 65 77 87 90 96
84 88 86 81 68 55 41 37 35 35 37 36 36 38 39 40 41 42 43 41 38 38 38 39 40 40 39 38 42 45 49 43 37 44 51 55 55 61 56 83 77 84 84
82 85 86 79 66 50 40 36 34 35 34 35 36 38 40 42 43 44 42 39 39 41 42 42 42 44 43 41 43 51 56 58 50 38 37 51 54 56 60 67 63 86 83
84 82 78 74 56 52 43 39 34 33 35 36 37 38 40 42 42 39 38 39 40 43 44 45 46 47 48 49 55 56 58 62 62 52 52 55 52 49 67 60 62 70 75
76 73 70 61 54 52 47 40 36 36 38 37 38 40 42 42 40 37 36 37 40 41 43 46 47 46 51 59 60 62 63 64 65 60 56 56 57 55 58 63 67 73 76
68 65 59 54 50 50 47 44 40 40 40 38 40 43 42 41 39 41 42 44 46 47 49 51 54 53 53 60 62 64 63 64 57 59 63 60 58 53 51 54 58 70 68
62 58 54 49 47 49 50 45 43 42 40 42 44 43 42 39 40 42 44 44 46 48 52 53 52 51 49 55 64 62 56 54 57 63 66 67 69 67 69 61 59 69 71
54 52 46 44 49 51 48 46 44 42 45 46 42 41 37 39 41 43 44 45 46 50 52 52 52 52 50 53 56 55 59 63 65 68 71 74 72 72 68 68 71 71 73
50 50 46 50 51 51 49 46 43 46 46 42 40 36 36 38 41 43 44 46 48 52 52 53 52 52 52 55 62 65 66 70 72 78 81 76 71 70 69 72 80 95 89
54 52 52 54 51 47 44 44 47 48 42 40 36 36 36 41 42 44 46 49 52 54 55 55 55 55 62 68 73 75 74 74 76 80 78 81 80 74 78 80 88 97 92
64 55 55 52 45 43 44 48 46 41 39 37 35 36 41 43 45 47 51 53 55 57 55 58 62 66 68 72 78 77 75 75 80 82 84 82 82 77 71 72 72 71 70
63 58 54 50 48 47 46 44 37 36 37 35 36 41 44 46 49 54 56 57 55 56 59 64 72 77 75 74 75 81 84 85 84 85 85 80 81 83 82 85 79 76 77
66 57 54 56 54 50 44 37 36 37 36 37 41 45 48 52 55 57 59 56 58 63 64 70 77 79 82 82 81 93 98 97 96 97 92 87 81 84 84 80 77 80 84
64 56 56 56 52 46 41 37 38 38 36 41 45 50 54 58 61 60 58 62 65 70 73 76 76 78 80 81 77 78 91 81 85 84 98 98 96 94 92 90 84 80 80
64 58 54 52 47 41 38 39 39 38 40 46 52 55 62 65 62 61 62 64 72 75 76 76 76 76 76 75 80 77 76 76 87 84 78 80 83 89 89 86 87 86 86

GFSMW_925_rhum_117.txt.gz
RH
84 79 79 74 73 75 81 87 85 85 91 90 96 99 98 98 99 100 100 99 95 86 99 98 96 100 100 99 100 94 94 92 93 91 83 78 73 67 62 62 66 60 55
81 79 78 75 80 81 84 85 83 82 83 93 96 100 98 96 99 98 95 99 99 92 87 99 99 100 100 96 99 96 99 100 99 96 87 93 76 64 68 68 70 70 71
83 80 81 81 82 81 83 82 80 72 76 90 87 89 95 95 98 98 99 99 100 100 100 100 100 100 97 96 98 100 94 98 97 96 97 92 95 85 74 69 72 73 69
79 81 84 85 86 81 81 74 68 63 66 82 85 88 98 100 99 99 97 92 92 90 83 84 92 98 99 100 98 98 99 94 100 94 95 90 98 89 88 68 74 76 77
86 85 84 85 83 81 79 66 56 51 48 51 60 63 64 67 61 54 49 45 41 50 59 51 49 48 54 73 88 88 92 94 99 99 99 98 96 95 94 92 87 82 72
88 85 83 83 86 84 74 68 52 48 43 42 42 44 44 42 40 38 37 38 37 39 40 38 38 42 43 48 47 46 51 60 88 88 98 99 99 96 95 90 87 90 82
90 89 89 88 86 86 74 66 57 45 42 40 36 38 37 38 39 39 39 38 39 37 37 36 36 36 39 42 43 55 55 62 69 74 76 83 94 94 98 97 91 91 82
90 90 87 85 85 83 76 69 58 43 36 36 38 36 34 35 35 35 36 36 36 36 32 30 30 32 31 34 31 44 37 52 58 74 62 67 83 85 100 90 95 93 85
91 91 85 82 80 81 74 60 59 35 36 34 35 34 34 34 34 34 33 33 31 30 28 26 26 28 28 32 33 33 29 30 38 63 60 63 72 85 80 70 91 98 96
90 90 87 81 78 80 73 63 52 43 34 35 35 34 34 35 36 37 38 37 33 31 30 30 30 30 30 29 34 36 39 33 32 34 40 48 62 74 65 62 88 86 98
89 89 87 80 79 77 69 63 48 47 37 34 36 36 36 36 36 37 39 36 32 31 34 37 37 38 38 38 43 46 52 51 45 40 34 36 55 61 56 59 89 85 87
85 87 84 81 81 77 70 65 51 41 41 38 37 37 38 38 38 39 40 36 33 34 38 39 39 41 41 41 43 54 58 61 62 59 46 44 50 51 56 68 76 71 82
86 86 85 84 81 77 72 69 58 42 38 37 35 36 38 38 38 40 38 34 32 34 37 38 41 42 39 42 51 60 63 65 66 61 53 51 56 62 69 67 68 64 79
86 87 89 86 80 76 75 71 65 49 37 36 35 35 37 38 40 40 36 30 30 36 39 43 45 45 43 44 60 65 67 66 65 57 56 57 59 74 75 76 75 71 78
88 86 85 85 83 78 74 72 69 50 38 36 35 34 36 39 42 42 35 32 36 40 44 47 47 46 45 54 69 69 68 66 63 58 60 61 70 76 77 75 79 79 78
78 76 80 82 85 80 74 68 67 50 39 36 35 35 38 43 44 41 33 36 39 41 43 46 49 49 49 62 71 69 64 59 59 62 66 68 70 75 75 83 78 78 81
68 74 76 75 75 75 66 66 63 56 40 37 38 37 40 45 44 37 33 34 39 43 45 49 50 50 49 71 68 68 68 66 67 70 72 73 74 75 71 75 76 72 79
66 70 70 72 70 64 62 60 62 54 43 39 41 40 43 45 42 32 31 37 43 45 48 51 52 52 50 60 71 73 75 74 73 71 73 79 78 76 78 74 74 77 76
64 64 63 65 64 64 59 62 62 53 44 43 43 42 45 44 36 30 35 42 45 47 51 53 54 52 53 55 74 77 80 77 76 73 77 80 77 78 75 72 76 85 84
63 63 59 61 63 58 58 61 59 51 46 45 44 45 44 40 32 33 41 44 48 52 55 56 54 53 56 62 79 80 80 79 78 75 82 71 78 77 76 75 84 84 88
55 54 59 62 58 59 60 61 57 51 47 47 45 45 41 34 32 39 44 47 52 54 56 55 54 59 68 68 79 83 80 82 83 87 85 79 84 82 80 78 84 86 77
56 56 61 60 58 59 60 61 56 50 49 46 46 42 35 31 38 44 47 53 54 57 55 57 60 67 72 73 78 84 81 79 85 90 85 83 89 91 84 89 83 74 72
60 58 60 60 59 59 57 56 52 51 48 47 42 36 32 36 42 47 54 54 56 57 59 64 70 76 77 78 78 82 85 87 86 86 81 77 80 86 83 76 75 75 81
68 63 62 63 60 57 53 52 51 49 47 43 38 35 36 41 47 55 55 56 57 60 66 72 79 81 81 78 76 79 84 88 87 84 89 99 88 78 70 73 76 80 89
66 68 66 62 58 54 52 50 48 46 42 39 37 36 40 47 53 55 54 54 58 66 73 79 81 83 83 82 81 78 86 86 88 91 97 83 78 78 83 86 86 86 85
60 74 70 65 60 56 52 50 46 41 38 38 38 39 44 50 56 60 56 55 68 78 80 81 81 80 82 82 81 80 83 79 86 95 81 80 84 88 89 89 89 90 89

GFSMW_925_rhum_120.txt.gz
RH
86 79 75 72 72 73 74 80 79 76 78 85 94 97 88 93 89 92 90 92 100 99 100 98 92 98 98 98 98 99 98 100 98 100 91 87 80 75 70 67 69 70 65
91 81 77 76 78 78 79 76 79 73 82 92 94 99 98 95 99 99 99 97 100 100 100 99 99 98 99 100 95 94 90 90 88 96 99 94 76 75 71 67 64 62 64
90 83 78 80 80 82 78 73 69 64 76 87 85 88 91 92 98 88 86 80 82 77 76 81 91 97 98 99 99 100 99 99 98 95 94 95 97 92 70 69 67 77 84
84 82 81 82 83 85 77 66 57 52 54 67 69 79 93 82 69 62 52 42 47 53 47 42 42 46 59 74 91 95 96 98 99 98 98 98 100 96 93 77 74 78 78
88 88 84 79 86 83 74 57 49 44 42 42 49 50 50 47 41 40 37 36 36 36 34 34 36 38 43 46 54 55 54 86 99 99 97 96 93 100 96 94 84 85 83
90 86 82 82 87 82 71 61 48 44 39 37 38 39 39 40 38 38 38 38 36 33 32 31 31 31 32 36 45 52 54 55 60 63 66 95 98 95 93 92 90 91 82
92 91 89 86 87 82 70 63 55 43 40 36 35 34 33 35 36 35 34 35 37 35 32 30 29 28 29 28 34 39 39 56 64 74 66 64 90 77 93 92 86 89 71
92 91 86 84 84 83 77 68 65 45 37 34 34 33 32 32 32 34 34 32 31 31 30 28 28 28 26 27 26 24 20 24 38 63 61 62 78 76 98 89 93 86 82
89 91 86 83 80 82 80 69 61 41 33 31 33 32 33 34 32 32 32 31 28 28 30 32 33 34 34 36 37 37 33 27 23 24 31 45 56 64 65 56 66 87 92
88 91 87 81 78 78 78 74 52 47 30 33 34 34 34 34 35 34 33 32 28 26 25 27 29 32 34 36 42 47 51 47 43 40 32 31 40 65 64 60 64 93 92
87 89 86 77 74 76 79 73 61 45 41 33 34 35 35 37 38 38 39 35 29 25 25 29 31 33 35 36 39 46 53 56 57 54 46 39 42 48 49 60 71 83 89
85 88 83 79 79 80 80 73 65 50 42 38 34 34 36 39 40 40 40 35 29 29 33 36 37 38 39 39 44 54 60 64 64 63 50 48 49 50 62 69 70 74 68
84 87 87 87 83 81 79 74 64 58 46 38 37 36 37 40 40 40 40 33 28 27 31 34 37 38 39 40 45 61 66 67 67 64 56 57 56 62 72 75 78 80 81
84 87 89 87 82 78 76 73 65 62 58 43 39 36 36 39 40 42 40 33 28 30 33 36 39 41 40 40 56 68 70 68 65 62 58 61 61 73 78 78 76 77 83
84 85 82 83 83 81 75 72 69 66 66 53 39 36 35 39 42 42 40 34 29 31 36 39 42 44 44 45 72 72 71 68 65 62 60 65 67 80 83 80 84 80 82
74 74 77 77 80 79 76 73 68 67 68 61 41 37 38 39 42 44 41 32 30 35 40 43 47 47 47 46 74 70 69 66 63 66 68 71 71 75 84 79 84 80 80
58 70 74 73 72 74 70 75 62 62 68 63 44 39 39 40 44 45 41 32 34 40 42 45 49 48 48 50 73 72 75 74 73 73 74 72 76 75 74 76 80 76 81
52 58 65 69 66 67 72 65 65 64 66 64 46 40 41 42 45 45 38 32 36 40 44 46 50 51 49 53 74 76 79 80 77 75 74 75 77 75 80 79 75 74 76
53 53 52 55 59 64 64 69 72 69 67 63 48 42 43 43 46 44 34 32 38 42 46 51 53 53 49 52 76 80 81 80 78 76 73 79 85 80 79 76 78 83 86
53 54 53 61 65 61 68 72 73 70 67 62 50 44 44 44 46 39 30 34 41 44 51 54 55 52 53 57 70 84 82 83 82 79 78 79 83 81 77 82 94 100 91
52 51 54 63 64 66 68 71 72 70 62 60 49 47 46 46 42 32 32 39 43 49 52 56 53 52 57 66 72 85 85 83 81 92 88 76 81 82 81 84 99 95 79
55 51 58 56 56 61 67 70 70 64 62 54 49 48 47 44 35 31 37 42 48 53 54 55 53 54 64 73 76 87 83 79 82 89 87 83 86 95 91 86 78 72 73
60 58 62 60 56 56 61 67 65 63 56 52 50 48 45 37 33 35 40 47 53 56 56 58 61 61 71 76 76 84 84 83 84 81 85 81 83 87 90 78 74 74 75
58 57 65 66 62 57 59 61 60 57 54 52 49 45 39 35 37 41 46 53 54 55 57 62 68 74 80 80 77 80 81 84 90 84 88 99 94 82 72 70 63 69 77
54 56 64 68 64 60 58 56 56 55 53 50 46 41 38 41 42 47 50 53 50 52 58 66 78 83 86 83 86 81 78 87 88 82 98 91 79 77 76 79 82 84 84
60 65 67 71 68 66 59 56 54 52 50 47 43 40 38 39 44 50 52 53 68 75 79 81 83 83 84 83 83 80 79 81 86 98 91 82 80 86 87 89 88 91 92

GFSMW_925_rhum_126.txt.gz
RH
50 66 67 68 71 72 72 70 69 68 72 78 81 82 96 99 93 93 85 85 84 87 89 97 99 100 100 93 90 89 94 92 93 78 69 71 74 85 98 79 75 93 93
50 65 68 67 68 72 74 71 67 66 72 80 87 97 100 98 97 85 79 75 71 77 73 78 80 83 89 89 92 94 92 96 98 96 78 64 60 86 90 95 98 90 87
36 54 65 65 69 71 74 71 67 62 68 77 85 95 97 85 76 70 63 59 59 61 63 65 70 73 70 69 67 71 81 95 91 98 99 82 81 76 74 95 97 93 91
41 50 61 64 69 72 79 72 64 61 56 67 70 76 72 66 64 61 57 56 53 53 55 55 58 61 70 70 65 64 67 64 62 72 70 88 97 94 85 76 71 69 62
53 56 62 64 68 76 78 72 60 56 55 58 64 62 59 59 58 55 54 54 52 51 50 44 47 50 52 63 64 62 62 65 61 62 60 59 60 77 84 76 48 45 53
57 59 62 68 69 77 80 74 59 54 52 50 51 56 56 54 51 50 47 47 44 43 40 41 42 44 46 50 49 51 53 54 61 58 56 56 62 61 59 53 46 46 39
57 59 64 68 69 74 79 75 65 57 51 46 45 48 49 50 48 48 46 44 42 40 42 43 42 41 46 49 49 50 50 50 53 49 53 55 56 64 57 56 45 41 35
58 60 64 67 70 71 77 73 68 61 52 42 42 46 47 46 46 48 46 43 42 41 40 42 43 42 43 45 48 51 51 53 58 54 51 49 56 61 66 64 58 46 38
58 61 63 68 69 69 73 77 69 65 57 44 41 39 41 44 44 44 43 44 44 37 38 40 44 44 44 47 50 52 52 53 57 61 57 51 51 56 65 66 62 57 52
57 58 61 64 67 67 70 77 75 64 56 44 37 35 36 39 41 41 41 42 39 36 39 40 43 44 46 47 51 52 57 56 59 56 58 53 54 56 61 66 62 61 61
50 53 56 59 62 64 66 69 73 70 62 50 36 36 36 38 38 38 40 42 40 37 36 36 38 39 40 40 43 47 52 55 57 60 62 57 56 57 59 67 67 66 67
44 45 50 53 55 59 60 62 67 70 68 57 44 36 36 39 40 39 41 42 41 38 35 37 39 40 42 43 42 42 48 54 57 59 62 58 54 57 60 64 64 64 65
36 37 42 47 51 54 57 58 62 67 70 68 53 42 39 40 39 39 41 44 43 40 38 36 38 40 44 44 42 43 54 59 60 61 61 58 58 56 58 63 66 70 69
29 31 34 37 45 51 54 56 59 63 68 71 63 50 43 41 39 39 43 45 43 41 38 38 40 44 45 45 44 47 56 58 62 64 64 62 61 62 65 66 66 66 68
26 28 32 32 36 45 53 58 59 62 68 72 68 58 51 46 43 42 45 46 45 43 41 39 41 42 45 43 45 52 64 65 61 61 63 63 68 67 80 72 70 68 66
27 29 30 32 38 42 49 54 59 62 67 72 70 64 59 53 48 46 47 48 48 46 43 42 41 43 45 43 38 69 62 64 66 64 63 66 76 74 78 84 81 80 75
29 31 31 32 35 39 45 50 54 58 64 70 70 67 64 59 53 49 48 49 49 47 45 42 44 44 46 42 40 71 67 68 66 71 70 67 63 72 71 73 77 75 77
28 28 29 35 40 46 52 56 60 61 62 66 73 70 68 63 57 51 50 49 48 47 43 41 44 48 51 43 45 71 66 65 71 74 73 69 67 67 76 77 73 71 69
30 33 36 41 47 48 53 62 66 69 71 73 73 74 71 67 61 56 52 50 50 48 46 43 46 52 54 50 44 70 66 71 72 70 70 70 71 73 78 78 75 72 71
33 36 40 46 49 45 58 68 71 74 75 77 78 77 75 69 63 60 54 54 52 50 47 49 52 58 59 59 48 71 70 72 70 68 68 72 80 84 81 79 79 80 78
40 44 46 49 49 55 63 65 68 71 73 80 82 80 75 70 65 59 55 56 52 49 49 52 56 61 58 54 51 69 78 73 71 71 70 66 73 77 79 83 92 88 84
43 45 48 50 54 58 63 61 61 63 66 73 79 79 75 70 64 60 53 53 52 51 49 50 49 50 50 51 62 79 86 82 76 72 69 69 74 80 88 82 80 81 78
48 50 53 55 53 53 61 61 56 62 63 69 71 71 69 66 60 55 54 50 47 45 43 45 46 44 48 52 67 82 86 85 81 76 77 80 76 82 82 81 78 76 66
53 55 57 54 52 55 66 67 65 65 64 66 66 66 63 57 54 52 47 46 46 45 43 45 44 45 52 59 71 77 76 83 83 78 78 81 88 88 87 77 64 65 68
56 60 60 61 63 68 71 72 68 64 64 64 62 60 57 58 50 50 46 44 41 40 41 46 45 48 55 69 80 83 83 78 79 86 92 85 87 78 65 61 64 68 72
59 60 64 69 70 74 76 72 69 63 62 60 58 56 54 54 50 48 47 47 42 43 42 47 52 70 80 88 89 86 84 82 80 82 83 82 74 66 63 66 69 73 78

GFSMW_925_rhum_129.txt.gz
RH
33 44 52 56 61 60 62 59 60 60 62 66 69 70 88 91 90 84 77 75 73 77 74 75 76 77 84 80 81 84 80 86 88 76 69 60 62 76 92 94 92 94 95
29 44 55 57 58 59 64 63 60 60 63 70 75 80 91 95 85 75 69 64 63 66 60 67 66 68 64 64 62 65 70 82 84 90 80 64 59 72 85 92 96 96 90
21 32 50 56 58 61 65 63 62 59 62 71 75 83 92 82 69 64 58 55 54 56 59 57 59 61 67 66 62 62 62 63 58 82 87 82 89 77 81 87 78 68 67
26 25 37 52 57 61 68 68 64 61 54 64 66 70 67 63 60 57 56 53 52 52 51 48 48 51 54 61 57 56 58 58 54 54 52 61 80 89 78 67 56 48 41
38 36 41 51 56 63 70 70 62 58 56 57 62 60 57 56 54 52 52 52 49 45 42 43 44 45 44 50 50 51 51 51 55 53 50 48 49 65 57 59 43 37 38
42 44 48 55 58 65 72 72 62 56 53 52 53 55 57 54 50 48 45 43 40 40 42 39 42 41 46 48 49 50 49 50 50 46 48 50 49 53 50 49 44 40 34
44 48 52 56 59 62 69 70 65 55 52 49 46 47 47 48 45 44 42 42 39 40 42 42 43 42 44 47 50 53 52 52 53 49 46 48 52 57 53 53 48 45 36
46 47 51 54 59 62 66 68 64 61 56 49 43 43 44 45 43 44 43 41 39 38 41 42 42 42 42 45 47 48 49 48 57 56 55 50 50 53 58 62 61 56 41
45 48 50 55 59 62 64 66 67 66 60 51 41 36 37 40 41 44 44 42 42 38 33 41 38 42 44 46 48 52 52 53 57 58 58 51 51 54 58 62 58 55 56
43 46 49 52 56 60 61 63 68 65 58 53 40 35 32 35 38 39 38 39 39 40 38 38 38 39 40 43 44 48 51 52 52 51 58 54 54 53 59 62 62 59 59
36 38 42 46 50 53 57 58 62 65 54 50 42 32 30 32 34 35 36 37 37 35 34 32 32 31 32 34 36 38 43 46 49 54 57 60 54 54 56 61 66 64 64
33 33 33 37 40 45 48 52 54 59 60 55 46 36 31 32 34 35 36 37 39 38 36 34 32 31 32 35 36 36 36 42 48 51 54 58 49 54 54 59 60 62 62
20 20 22 26 34 37 41 46 49 52 57 59 56 46 36 33 34 35 35 38 40 39 36 36 34 32 32 36 36 35 36 45 50 52 53 54 54 53 51 55 61 63 67
18 20 22 22 26 30 35 40 45 48 52 58 61 58 46 37 35 35 36 37 40 41 38 37 35 34 36 38 40 39 40 46 50 55 58 58 57 56 58 62 63 61 64
20 22 24 25 26 27 31 39 45 46 50 54 60 63 58 46 40 38 37 39 41 41 40 39 37 37 38 41 41 42 46 54 58 55 56 58 61 64 69 74 73 70 69
22 23 24 26 26 28 32 36 42 46 50 52 57 62 64 56 47 43 40 42 43 44 43 42 40 37 38 40 42 38 57 56 58 59 57 58 62 72 73 73 82 82 81
24 25 25 24 27 31 37 39 41 44 47 52 56 61 64 62 55 49 46 45 46 46 45 44 42 40 39 44 57 51 61 62 58 61 64 67 60 60 67 68 71 74 73
26 27 26 29 30 33 39 44 49 52 54 54 55 61 65 65 61 56 51 48 47 47 46 46 43 40 40 47 58 48 66 62 57 62 68 69 66 64 65 71 76 75 73
32 32 31 33 35 37 40 45 52 56 61 65 65 64 68 71 67 61 55 51 49 48 47 46 42 40 43 51 59 63 61 61 60 64 66 66 66 66 72 77 79 77 76
36 35 36 38 38 40 45 51 57 61 64 66 69 72 74 73 72 68 61 56 51 50 49 48 46 43 46 52 62 70 62 61 62 62 64 66 69 74 78 84 85 87 85
37 38 40 42 44 47 52 55 56 56 57 63 70 75 78 78 76 71 64 60 54 52 51 51 49 47 49 53 62 73 70 62 63 64 66 67 68 69 75 74 83 90 91
43 44 45 47 48 49 48 51 52 51 53 61 65 72 77 78 73 71 66 58 58 54 52 49 50 47 48 54 55 61 71 70 73 72 72 70 69 74 76 82 87 83 85
46 48 49 50 46 44 46 52 56 59 60 61 62 64 67 70 70 65 62 62 58 55 50 46 43 42 43 44 51 65 70 79 84 83 78 76 80 80 78 78 77 85 83
48 50 51 50 50 53 58 60 63 65 62 61 60 62 65 64 62 60 58 56 53 49 46 42 42 41 41 45 49 60 75 81 84 84 83 80 80 80 83 79 75 62 62
50 52 54 56 57 58 61 64 67 67 63 61 60 59 60 57 55 53 52 49 48 46 44 41 40 42 47 49 54 66 73 78 82 81 84 96 90 80 84 76 62 62 66
50 52 54 55 57 59 59 61 67 68 64 60 58 57 56 55 54 50 50 48 46 43 41 40 42 46 50 55 74 83 88 87 84 84 86 84 81 82 76 65 65 69 75

GFSMW_925_rhum_135.txt.gz
RH
44 45 50 51 54 57 59 60 59 58 56 64 72 83 84 83 84 80 68 61 61 60 63 59 55 61 60 55 49 50 54 57 65 51 61 80 89 91 82 69 62 62 57
50 53 52 54 56 57 61 63 62 59 57 64 74 81 84 88 82 69 56 51 46 43 44 44 42 50 51 44 37 37 39 48 55 61 86 93 77 58 86 72 42 55 45
53 61 60 57 58 59 62 63 64 60 57 59 72 84 81 84 80 62 56 49 42 34 30 29 28 31 33 30 26 29 38 46 41 52 73 88 92 87 76 68 44 38 37
48 62 63 62 59 59 61 65 66 62 58 56 68 75 76 80 68 59 51 48 38 26 22 22 23 26 26 24 25 27 29 44 51 37 36 44 54 93 92 63 51 41 32
35 46 63 60 59 60 63 65 67 65 59 54 62 64 61 60 59 53 51 48 40 34 28 19 20 23 24 27 28 28 27 39 40 44 48 43 50 57 68 80 61 38 33
52 48 49 57 59 61 64 66 69 68 60 55 53 59 60 57 54 51 49 46 40 38 33 24 20 22 22 24 27 32 33 33 33 34 39 48 58 67 65 74 71 68 46
57 57 61 60 60 63 63 65 69 72 63 56 51 51 55 57 53 51 47 39 38 38 35 29 21 22 20 23 28 35 40 38 40 41 41 40 48 54 55 64 78 79 58
58 63 60 58 58 59 62 65 70 71 68 57 53 48 47 48 46 41 38 36 34 34 34 32 24 21 21 21 24 30 41 43 43 47 51 48 48 51 51 62 73 83 71
57 59 58 59 58 60 61 63 67 70 69 64 56 52 47 42 36 32 35 35 33 34 34 31 26 22 20 22 24 26 37 44 44 49 51 50 51 52 51 55 60 71 82
48 57 56 53 52 55 57 62 65 67 66 68 63 57 52 45 39 34 33 33 33 34 36 34 29 28 25 24 25 25 29 39 40 44 50 51 52 51 50 56 57 64 73
44 51 50 45 50 52 53 55 60 62 64 66 68 66 58 49 42 38 33 32 34 35 36 36 34 31 28 25 26 26 28 33 37 37 46 50 53 53 53 49 55 59 66
30 32 30 28 28 37 52 53 52 56 54 56 64 67 62 56 48 39 33 32 33 35 37 37 36 33 31 28 26 25 28 31 34 35 44 50 53 55 54 52 54 56 59
28 35 33 33 30 29 33 47 51 51 50 54 58 63 64 57 52 46 40 32 32 33 35 37 37 36 33 31 28 27 27 29 31 32 42 48 52 54 55 55 54 57 60
31 35 37 35 32 32 32 32 35 42 46 51 54 56 58 60 60 56 49 41 34 32 34 36 37 38 36 34 31 30 28 29 30 31 42 49 53 55 56 58 58 59 64
36 38 39 38 34 33 34 37 37 38 42 47 50 51 52 54 57 61 59 50 40 35 34 35 37 38 38 36 35 33 31 29 30 34 39 53 57 56 56 58 61 67 72
40 41 41 39 39 38 37 38 40 42 45 46 47 49 52 54 56 58 61 63 54 42 37 36 37 38 39 38 37 35 34 32 35 37 39 51 59 58 68 70 73 82 83
45 46 48 44 40 39 41 44 46 47 45 46 48 53 57 60 61 62 64 66 64 56 42 38 38 39 39 40 39 38 42 42 39 35 36 46 57 60 61 63 69 70 73
49 50 46 43 42 43 44 47 46 47 49 49 50 52 59 64 65 68 69 70 69 66 58 45 40 40 40 41 41 41 46 50 50 46 43 48 54 61 62 65 67 66 67
51 48 45 46 46 47 49 49 48 49 50 50 53 54 58 59 61 68 73 74 76 73 65 56 48 44 44 44 44 43 47 54 58 55 52 51 52 57 66 74 72 71 73
50 48 49 49 49 48 48 48 48 50 51 55 57 58 58 58 59 63 69 74 79 79 76 67 56 52 50 49 48 47 49 57 61 98 60 49 62 63 74 74 73 75 78
52 50 50 52 50 49 48 49 52 52 55 58 59 59 56 57 60 63 66 70 78 81 76 65 60 57 54 51 49 51 61 59 97 92 62 48 48 69 70 72 74 76 78
52 49 51 50 46 47 51 53 55 51 55 59 60 58 56 56 58 60 61 67 72 75 77 73 66 61 56 53 48 58 75 79 99 76 67 56 55 73 75 77 78 77 78
50 48 52 52 42 41 49 55 47 48 50 53 54 56 56 56 57 58 60 63 67 69 71 72 68 63 58 54 55 56 69 98 78 75 75 76 78 81 82 81 83 84 79
49 47 48 48 45 34 35 38 36 42 52 56 55 54 57 57 56 57 58 60 62 66 67 67 66 64 62 59 57 54 63 64 68 70 76 81 88 89 85 84 85 86 80
44 43 46 45 42 36 34 36 35 39 48 54 54 52 52 56 59 58 58 56 55 56 60 61 60 62 62 54 50 45 42 43 46 56 70 78 79 80 87 89 82 81 79
45 42 41 43 40 38 35 35 34 37 45 54 58 58 59 59 60 62 62 57 56 55 53 53 54 52 50 49 46 44 45 61 72 75 83 89 93 99 98 97 91 89 84

GFSMW_925_rhum_138.txt.gz
RH
46 50 53 50 51 54 55 55 57 56 54 61 80 86 82 82 83 78 64 58 58 56 55 48 49 52 46 38 29 29 38 46 46 61 84 78 87 82 65 48 52 45 41
46 54 55 55 55 54 56 58 60 59 56 57 72 80 83 86 83 69 57 49 44 41 40 38 34 31 26 19 18 22 32 41 50 56 84 88 75 70 64 44 41 37 35
45 60 62 59 58 58 58 59 61 61 58 56 66 83 84 87 82 66 59 50 41 34 29 26 23 22 20 18 20 20 28 37 45 41 64 71 88 89 79 69 49 40 31
40 63 65 64 59 58 59 61 63 64 60 56 61 78 83 84 80 70 57 48 42 30 24 21 20 20 20 19 22 23 25 36 30 34 41 53 53 89 87 66 57 41 27
52 70 67 57 58 60 60 61 65 66 62 56 54 66 72 69 68 62 53 50 46 35 30 24 19 19 19 20 23 27 26 29 27 32 38 42 64 61 73 82 64 32 31
54 48 54 60 61 62 63 65 67 67 66 60 55 56 64 61 59 56 52 50 45 39 35 31 21 18 16 18 23 29 31 30 32 33 33 40 54 65 64 76 77 73 46
62 68 67 68 65 64 64 67 69 67 68 65 56 52 53 60 58 55 51 47 40 35 32 33 27 20 19 20 23 28 33 33 35 37 39 38 42 49 52 64 76 86 61
61 63 62 61 61 61 63 65 67 66 68 69 61 55 50 51 56 55 50 46 39 34 32 32 30 24 20 20 20 23 29 35 36 38 42 43 43 48 50 52 70 79 77
60 63 60 60 58 58 58 60 61 63 67 69 67 60 54 49 46 44 40 34 35 33 32 33 32 30 25 24 22 22 24 33 39 39 44 47 46 48 50 51 59 67 74
56 60 58 56 54 56 56 60 61 62 63 68 68 66 61 56 52 47 42 34 31 33 33 34 35 33 29 27 24 23 24 30 37 39 42 46 48 50 50 48 56 62 70
47 51 41 31 30 32 48 55 59 62 61 62 62 66 66 64 60 55 49 41 37 33 34 35 37 36 34 32 30 27 26 28 29 33 38 41 46 52 53 53 52 56 65
35 36 35 33 32 32 33 38 52 60 56 57 61 62 63 66 67 62 54 48 43 35 32 34 36 37 37 35 32 29 27 26 28 29 34 36 42 50 53 54 52 54 56
34 39 38 37 36 35 36 36 38 42 51 57 59 60 61 64 65 63 60 56 50 44 36 33 35 35 37 37 35 32 30 28 28 28 31 31 41 49 52 53 55 56 56
38 41 43 40 38 38 38 39 41 43 43 45 49 54 58 60 63 63 63 61 58 52 46 40 35 34 35 37 37 35 33 31 30 29 30 31 38 47 51 54 56 57 59
42 44 47 46 42 40 38 39 41 44 49 49 49 49 49 52 56 57 60 63 65 62 56 47 41 37 36 36 38 38 36 34 33 32 31 31 36 47 55 57 56 59 63
45 46 49 47 46 44 45 46 46 45 45 44 46 47 48 51 55 59 61 63 64 66 65 58 49 42 39 37 37 38 38 37 35 35 34 34 38 47 62 74 76 76 76
49 51 54 50 47 48 48 49 48 46 46 46 45 46 49 52 54 58 63 66 70 72 72 68 60 51 47 43 39 39 41 40 38 38 38 38 37 39 51 58 67 70 72
52 56 52 50 49 49 49 47 44 44 45 47 50 52 53 54 54 53 53 56 65 73 76 75 72 65 60 52 44 42 45 44 43 44 44 47 54 42 48 61 65 63 62
55 54 52 52 49 46 46 47 46 50 51 53 55 57 59 58 56 54 55 58 64 68 74 78 79 73 70 64 53 46 55 51 48 47 49 75 57 92 55 74 75 73 71
55 52 51 50 49 49 50 50 50 50 50 52 54 56 59 59 56 56 58 59 66 66 72 77 79 78 74 67 58 52 59 56 56 55 53 56 78 95 75 72 75 78 76
53 52 50 51 49 48 49 49 49 46 48 48 49 50 52 57 57 56 57 58 60 64 68 71 72 76 73 67 62 58 67 63 62 58 77 55 94 91 73 70 78 78 76
51 49 52 49 42 39 42 43 40 33 35 40 44 45 47 51 55 59 56 57 61 64 65 69 67 67 70 70 65 60 63 66 62 68 72 70 98 82 71 69 74 77 80
51 46 48 46 36 34 36 41 34 35 36 39 40 40 43 45 48 54 57 61 60 63 64 67 69 64 61 64 64 61 68 70 85 78 84 98 75 82 75 74 78 79 89
47 46 45 42 38 30 35 38 34 32 36 39 40 42 45 47 51 55 58 60 61 64 67 67 70 64 62 61 61 62 63 72 78 95 98 83 86 87 84 89 89 88 94
44 42 41 40 36 29 24 28 31 35 41 45 44 45 50 57 62 62 64 66 61 62 66 64 61 66 64 56 55 54 56 56 56 71 74 70 74 82 85 90 87 83 97
44 39 35 37 34 32 29 30 29 38 46 57 60 59 66 71 73 74 73 63 68 69 70 68 74 65 57 55 55 56 55 61 60 64 69 76 82 81 81 86 94 97 98

GFSMW_925_rhum_141.txt.gz
RH
50 52 54 53 55 54 54 54 54 54 54 56 70 84 83 82 82 78 62 55 54 52 48 45 43 40 27 18 15 17 23 31 55 84 84 92 89 57 54 46 40 35 33
48 55 57 58 57 53 55 56 55 56 56 54 60 76 81 82 83 74 59 50 46 41 38 33 27 22 19 15 13 14 24 34 44 57 85 82 81 71 47 42 38 31 27
42 52 61 60 57 58 56 56 56 59 59 56 58 72 84 84 84 73 64 53 44 35 27 22 20 17 15 14 14 15 22 33 34 35 61 58 73 86 80 66 55 29 29
30 44 56 63 59 55 56 58 60 62 62 59 56 66 82 85 82 79 68 52 46 36 26 21 18 16 15 14 15 20 21 29 24 30 35 58 55 78 70 71 64 31 34
35 45 59 54 55 55 56 59 63 64 65 62 57 57 70 76 76 73 68 53 50 44 32 28 23 18 17 16 16 18 18 20 22 27 31 38 58 63 79 80 63 29 39
44 52 61 62 58 58 59 63 64 65 67 66 61 55 58 65 66 62 61 54 51 45 35 32 28 22 18 16 18 22 25 26 28 28 29 35 46 56 60 74 76 75 46
63 63 59 65 66 63 63 64 66 66 68 68 65 58 54 54 60 59 57 54 49 42 33 33 32 30 22 20 18 19 23 30 33 35 35 34 35 47 53 65 70 82 59
66 66 63 63 62 62 62 63 65 65 67 68 67 64 56 52 50 54 57 55 51 42 37 35 34 34 29 24 23 22 24 31 34 35 37 40 39 41 45 48 61 65 74
61 58 60 62 60 60 59 61 64 64 65 67 68 68 65 57 52 49 48 49 47 38 35 36 35 35 34 30 27 24 23 25 30 34 37 40 42 43 45 48 53 60 59
55 60 58 54 48 47 52 60 62 62 63 67 68 69 69 66 61 56 53 50 47 41 35 34 35 35 36 35 31 29 26 26 24 30 37 38 41 46 48 49 50 60 64
53 51 38 34 34 34 37 46 59 64 62 63 66 68 66 66 67 66 62 59 56 50 43 38 35 35 36 37 35 34 31 29 28 29 35 38 40 46 51 53 53 56 64
41 40 39 38 37 37 37 38 40 45 53 60 62 62 63 65 67 66 65 65 63 58 52 47 40 36 37 38 39 38 35 32 30 29 30 31 38 43 49 56 56 56 54
38 43 42 42 40 40 39 41 42 43 45 47 51 54 57 61 63 65 65 66 66 64 61 56 49 42 38 36 37 38 38 35 33 31 30 29 32 35 42 51 56 56 56
42 45 47 47 43 42 41 41 43 46 48 49 48 47 47 48 50 53 56 60 62 66 66 64 60 52 46 41 38 36 38 37 36 34 32 31 31 31 34 45 50 55 59
42 45 51 52 47 44 45 47 48 47 46 44 43 44 45 47 49 52 57 61 63 64 65 66 65 64 59 51 44 40 38 38 38 37 35 34 33 31 32 40 47 54 60
42 46 50 50 50 49 49 49 46 44 45 44 44 45 46 46 46 48 51 53 56 62 69 70 71 69 66 63 56 48 43 41 40 39 38 36 36 35 33 46 73 70 66
47 51 54 53 50 49 50 50 48 47 46 47 48 50 53 54 53 53 51 50 51 54 58 64 72 74 72 70 66 60 54 49 45 42 40 40 38 38 37 39 56 71 77
52 56 54 52 52 52 50 49 48 48 48 49 50 52 53 54 54 53 52 53 56 59 62 63 68 75 73 75 74 70 62 63 53 49 46 44 42 42 42 83 63 51 55
56 55 53 54 52 52 51 49 47 48 47 48 48 50 52 52 54 54 55 54 56 56 58 61 64 71 70 74 77 74 67 68 62 56 53 50 49 47 54 97 80 88 65
57 55 56 54 51 49 49 45 42 38 37 38 39 41 46 52 53 52 53 55 59 60 59 58 58 63 67 65 74 73 70 69 68 65 61 58 57 55 75 99 99 87 80
56 56 52 50 48 43 40 39 38 34 35 34 32 32 33 38 40 47 49 52 54 58 57 59 55 55 57 60 68 73 74 71 72 69 68 62 58 83 97 98 100 84 74
53 50 48 44 41 39 37 38 34 31 30 30 29 29 30 31 34 42 45 50 54 58 57 58 57 54 53 56 58 65 70 72 79 75 68 63 59 68 89 98 96 79 77
48 46 46 42 31 30 33 36 32 30 31 32 32 32 32 32 32 42 52 62 62 66 68 71 74 64 49 54 56 59 61 68 84 80 74 68 68 75 98 93 84 76 74
46 44 39 36 33 30 31 31 29 32 35 38 39 39 42 46 48 55 64 70 73 75 77 77 76 73 69 59 52 58 57 59 75 78 82 82 91 100 87 86 86 79 79
45 41 38 37 32 25 22 27 29 33 38 46 50 54 59 62 64 66 73 78 74 73 80 85 84 85 82 71 68 67 58 54 53 62 73 85 95 100 94 90 89 89 90
44 37 36 34 29 25 20 20 23 36 48 57 63 65 70 71 76 81 85 80 80 78 75 76 84 87 88 84 88 89 82 69 56 78 86 89 90 89 88 89 93 92 91

GFSMW_925_rhum_144.txt.gz
RH
52 53 54 54 55 55 54 53 52 54 56 54 60 72 78 82 80 78 64 53 49 48 44 41 35 26 17 13 10 11 17 28 86 82 83 93 62 57 50 43 38 34 32
51 57 56 57 56 55 54 54 55 56 57 56 57 65 75 80 79 78 66 55 47 42 38 32 25 19 16 14 13 13 20 28 33 54 88 88 85 60 47 42 46 34 30
46 54 65 62 59 58 54 54 57 58 59 58 57 62 75 79 78 76 68 61 50 39 30 24 19 16 14 13 13 13 14 22 27 33 56 60 66 83 57 55 59 34 29
34 43 52 63 60 54 55 57 60 60 61 61 60 58 69 81 77 80 78 68 51 45 37 25 21 18 16 16 17 19 19 22 23 28 35 54 56 69 60 76 75 43 33
31 33 38 46 53 57 56 59 62 61 63 64 63 59 57 65 72 78 74 73 56 50 45 32 29 24 20 18 17 20 24 26 26 28 30 37 51 61 78 74 58 33 39
40 49 55 53 55 56 58 61 62 61 64 66 67 63 58 55 63 64 66 65 59 53 48 38 33 31 26 22 20 20 23 26 28 29 30 31 37 49 54 69 68 66 39
62 61 62 71 67 62 62 63 63 62 65 68 67 65 64 58 55 57 62 60 58 53 47 42 35 33 32 27 22 20 19 21 25 29 31 34 35 43 52 62 64 76 54
66 62 62 65 66 66 65 65 65 64 65 67 67 67 68 65 58 54 54 58 58 55 52 43 36 34 33 32 29 25 23 22 24 30 34 36 38 41 46 49 56 59 67
67 61 62 64 63 61 61 62 63 63 64 65 66 67 70 70 66 60 55 52 50 49 47 42 36 34 33 33 34 31 28 26 24 25 32 37 38 43 44 47 52 53 52
65 66 61 46 40 37 40 48 61 63 64 65 66 65 66 70 70 70 65 61 56 54 52 49 43 38 36 35 36 36 32 31 29 28 30 34 35 38 44 47 50 56 59
62 50 43 38 38 38 38 40 44 52 58 62 64 66 66 70 72 71 68 68 67 64 62 58 53 47 43 38 38 38 37 36 34 33 31 29 32 34 40 45 50 54 62
48 47 43 41 40 40 42 43 45 46 49 52 58 64 65 65 66 67 66 68 68 68 68 67 63 58 52 47 41 40 39 39 38 36 35 32 32 32 37 43 48 54 56
45 48 45 45 43 42 41 41 43 46 49 49 48 49 49 50 51 52 55 57 60 62 63 67 68 67 64 58 51 44 41 41 40 39 37 34 33 33 34 38 44 52 57
45 48 49 50 46 44 44 46 48 47 46 46 45 46 47 49 49 49 51 54 59 61 62 64 66 66 66 65 62 55 48 44 41 40 39 37 35 34 32 34 35 43 56
48 48 52 54 49 46 47 50 50 50 47 45 44 44 44 47 48 47 48 48 49 50 52 58 62 67 70 68 67 64 60 53 47 43 41 39 38 36 34 34 33 39 52
47 48 50 50 50 51 54 53 48 47 47 48 50 50 51 52 53 52 50 48 49 51 53 55 60 61 65 68 71 72 68 64 58 51 47 43 40 40 38 36 42 34 43
50 53 55 54 54 54 54 50 50 50 50 50 51 50 49 47 47 48 48 49 51 53 54 56 61 61 58 62 68 73 76 72 68 64 58 52 47 43 41 40 66 75 86
54 56 57 55 55 53 53 52 51 50 47 43 40 37 38 38 38 41 43 44 48 52 55 54 55 59 54 58 64 72 80 80 74 70 67 62 56 50 46 43 42 47 60
57 56 56 56 54 54 53 48 41 35 33 33 32 29 30 33 34 34 36 36 42 42 44 47 51 56 54 53 57 64 76 82 79 74 71 68 64 58 54 59 50 56 57
60 57 56 55 53 49 43 37 32 29 31 33 33 32 31 32 32 32 33 35 44 51 50 48 45 46 48 45 53 56 70 83 79 75 71 68 68 64 62 71 73 87 90
57 57 55 52 47 44 36 32 31 29 32 31 29 27 27 31 33 36 34 40 46 54 58 58 54 50 46 44 44 49 64 74 82 79 74 70 68 74 85 82 86 95 100
58 55 48 45 41 35 32 30 27 28 27 26 28 30 30 32 37 46 48 49 53 62 65 67 66 60 47 48 55 55 61 75 90 84 73 73 72 68 74 94 95 100 100
51 49 44 36 32 30 30 29 25 26 29 31 31 33 36 41 46 54 57 64 68 74 80 83 83 77 71 62 54 61 68 83 90 95 78 83 79 73 84 92 94 97 100
48 44 38 34 29 27 28 28 28 32 35 38 40 45 51 53 52 55 60 72 80 87 87 88 85 82 82 83 68 68 75 78 76 70 88 91 88 86 80 90 98 98 92
45 39 36 35 31 28 26 27 27 34 38 45 47 51 55 55 56 57 66 75 73 83 96 96 94 91 90 88 90 92 96 97 96 90 82 79 98 100 99 93 98 92 86
42 35 34 34 29 26 23 25 28 36 44 51 52 54 58 60 66 72 77 71 76 87 89 86 92 92 92 92 93 95 96 97 97 92 94 89 90 96 96 97 99 100 97

GFSMW_925_rhum_147.txt.gz
RH
49 53 58 58 57 56 54 52 51 52 53 53 58 65 72 76 77 76 67 54 48 44 42 38 30 22 15 12 11 14 22 50 89 85 83 80 64 55 46 42 40 40 32
54 59 60 58 58 53 54 53 52 55 55 57 56 62 67 71 74 76 70 60 51 44 38 30 22 18 16 13 13 14 20 26 30 67 87 77 81 69 48 45 49 43 27
47 55 64 60 57 56 54 52 53 56 59 59 59 61 63 69 74 74 74 66 56 44 34 28 21 19 17 14 14 16 18 27 25 30 54 46 42 68 68 52 61 54 32
40 45 55 63 59 54 55 54 55 59 61 61 63 60 59 67 72 77 80 75 66 50 45 37 26 24 20 18 16 15 15 18 21 26 30 42 54 52 43 70 84 70 36
34 36 42 46 52 56 56 55 59 62 62 64 64 62 60 58 63 70 70 70 71 59 51 46 34 29 26 21 18 17 18 19 21 24 28 36 52 58 59 39 47 40 33
33 41 38 33 43 54 59 59 62 62 65 67 65 65 63 61 57 55 60 64 63 60 54 50 42 33 30 28 24 21 19 21 24 26 28 31 39 45 51 47 45 47 46
56 63 70 70 65 61 64 64 64 63 67 66 66 67 66 65 62 57 55 56 59 57 55 53 45 37 33 32 31 26 23 21 22 25 28 32 33 36 52 56 47 45 50
67 68 69 69 69 68 66 65 65 65 67 66 65 68 69 68 67 65 59 55 54 53 56 55 51 40 35 33 33 32 29 27 25 25 27 32 33 38 41 53 49 43 47
69 70 69 68 66 64 63 63 65 64 63 63 66 66 68 70 69 70 68 65 60 55 52 51 50 45 38 36 36 35 33 32 30 28 27 31 31 36 40 44 51 45 33
72 71 56 45 39 39 41 46 54 60 64 66 68 67 68 68 69 69 67 67 66 65 62 59 57 55 51 44 41 38 36 37 35 33 31 30 30 33 38 43 47 54 50
66 50 46 42 42 43 43 43 45 49 54 60 64 66 67 68 69 69 70 71 70 70 70 68 67 65 62 57 51 46 42 40 38 37 36 34 32 32 36 41 48 60 71
50 48 46 44 43 42 41 43 45 46 49 52 54 57 60 62 61 59 58 60 62 62 65 68 70 70 69 68 63 57 52 47 43 40 40 38 38 36 36 39 43 50 61
48 47 46 46 44 44 42 43 47 52 53 52 50 47 45 44 45 46 46 47 50 53 56 61 63 63 64 66 67 68 65 60 53 47 44 41 41 41 38 38 41 45 59
46 47 49 49 47 46 47 50 51 49 47 45 44 43 43 43 44 45 46 47 47 48 48 49 50 53 58 64 67 68 67 66 63 59 52 47 46 43 41 40 38 42 65
48 49 49 51 50 50 50 50 50 46 45 44 45 49 50 49 49 48 48 48 49 49 51 52 53 54 56 57 60 66 70 71 69 66 63 58 51 46 43 43 41 44 58
48 49 51 52 52 51 53 53 48 48 49 50 49 48 46 45 45 45 44 43 43 45 47 51 53 51 52 53 57 65 74 74 76 74 71 68 62 55 48 49 46 39 48
48 51 53 54 52 55 53 50 50 51 49 46 42 36 34 32 31 30 28 26 27 29 32 34 40 45 45 49 53 55 73 81 78 78 78 75 72 68 60 53 66 75 54
51 56 57 54 56 52 52 52 51 47 38 34 30 26 24 22 22 23 23 24 25 28 31 33 36 42 36 37 42 45 60 70 74 75 79 81 78 74 70 63 58 59 74
56 55 52 55 54 54 52 46 40 34 28 27 25 24 24 25 24 25 28 30 34 33 38 39 41 46 46 43 46 50 69 76 71 66 70 77 81 76 75 75 67 62 59
56 57 58 57 56 51 42 35 29 26 26 26 26 26 27 28 29 31 34 39 44 47 48 49 46 47 49 48 49 47 75 90 84 83 78 70 75 75 78 80 78 76 66
61 60 58 54 47 42 33 29 27 25 26 26 26 27 30 34 38 42 44 49 52 56 54 59 57 55 50 50 47 49 80 88 92 96 94 84 69 73 94 91 83 80 74
66 58 54 49 42 33 30 26 22 23 25 27 28 30 33 38 43 50 49 49 51 59 60 66 67 62 58 59 54 66 81 83 89 91 90 96 89 93 95 91 92 89 91
57 51 44 38 33 30 27 24 22 25 27 29 29 32 36 42 44 48 46 48 46 61 71 79 80 78 81 84 83 84 88 92 96 96 94 95 93 99 99 95 92 93 95
52 43 36 32 28 27 28 28 25 26 31 32 35 40 44 44 41 41 40 48 49 68 76 83 86 90 92 91 92 92 90 92 93 94 94 95 97 92 99 97 96 97 100
46 39 34 32 28 28 28 28 28 32 36 39 39 43 46 44 43 38 39 48 44 65 90 88 91 89 86 86 89 91 90 89 89 91 92 93 94 95 94 96 99 100 100
43 35 32 33 32 30 30 28 32 36 38 42 42 48 53 50 49 52 54 44 51 72 86 90 90 88 88 92 92 91 91 91 90 93 88 85 90 92 93 99 100 100 100

GFSMW_925_rhum_150.txt.gz
RH
40 51 58 61 61 60 61 60 60 61 63 67 64 69 67 78 84 77 65 57 51 45 49 46 39 33 30 30 28 31 36 49 71 71 71 72 68 60 52 50 50 59 57
40 48 58 62 62 61 63 63 60 62 61 63 68 71 74 80 83 84 70 60 52 45 41 34 29 26 33 32 29 29 32 35 43 50 54 47 62 66 56 51 48 48 46
36 42 54 59 62 62 64 63 63 62 60 62 61 64 66 74 82 80 77 68 60 46 37 34 27 26 23 31 29 28 37 31 34 43 45 33 28 40 58 54 53 53 51
32 37 46 55 62 62 66 65 61 62 62 61 65 72 67 64 71 79 81 79 70 58 48 44 31 25 23 26 29 21 36 39 30 37 39 46 48 33 28 43 56 64 53
29 31 40 48 57 64 68 65 67 64 66 61 68 72 71 68 70 73 77 79 77 68 56 50 44 32 28 28 24 30 40 39 36 34 33 36 38 41 37 28 28 40 38
24 26 28 38 50 67 70 70 70 70 68 65 66 67 74 70 66 65 65 66 69 70 59 54 49 41 32 32 36 32 30 42 42 41 41 36 31 28 36 32 26 29 29
24 33 43 38 43 60 69 72 71 72 74 69 68 68 75 72 70 68 63 62 62 65 66 58 54 50 42 37 35 38 44 47 45 43 39 41 40 39 37 36 30 31 27
39 48 54 56 60 64 69 70 70 70 73 75 74 76 77 76 73 72 70 67 64 62 66 65 59 56 50 44 41 40 43 49 47 49 47 45 45 47 46 39 36 32 32
51 55 58 60 64 68 71 73 72 75 74 72 74 74 75 76 74 75 75 73 72 70 66 64 59 58 54 51 50 49 49 50 49 52 51 49 48 51 51 50 47 38 34
56 56 55 53 50 53 58 63 68 68 70 72 72 71 72 75 77 77 75 74 72 71 69 69 67 65 64 61 60 58 55 52 51 51 52 50 50 50 54 57 53 50 42
53 44 38 39 41 45 46 49 53 56 60 68 71 74 75 79 78 76 73 73 72 72 71 70 70 68 67 65 64 63 60 58 56 53 54 52 50 51 53 58 58 54 53
41 34 34 36 38 40 42 46 51 53 59 60 61 63 61 60 62 60 60 63 64 65 68 67 68 67 67 67 66 64 63 60 58 57 56 58 54 52 54 53 58 58 56
33 31 33 32 34 38 40 46 51 53 54 53 51 51 52 52 52 54 56 59 60 60 59 61 61 62 62 64 64 64 63 63 62 62 60 57 55 53 52 52 53 55 54
32 30 30 32 36 40 44 46 49 52 51 50 50 50 52 55 57 56 53 50 51 56 58 60 62 61 63 63 64 65 64 63 63 63 63 61 59 56 54 52 51 53 55
32 33 32 32 37 42 46 50 51 51 50 51 53 56 58 53 53 51 48 46 46 48 52 50 56 59 63 64 64 67 69 69 67 66 66 66 67 65 62 57 55 54 55
32 32 34 37 39 42 46 52 50 53 54 54 54 50 46 41 40 41 34 34 41 43 46 46 47 48 50 54 36 45 73 72 73 72 68 68 70 70 71 73 66 58 56
30 34 35 38 40 45 50 47 54 56 54 51 41 36 36 37 32 28 36 37 38 40 40 40 42 44 44 31 37 43 74 69 68 74 78 80 75 74 74 74 78 80 75
32 34 37 42 47 50 54 57 57 52 44 41 35 31 27 35 39 41 40 39 41 44 44 46 48 52 52 33 35 40 72 64 62 67 73 73 73 76 79 76 73 72 75
30 35 40 44 50 52 58 54 47 43 36 37 37 38 37 40 42 42 43 47 51 51 52 55 56 55 55 41 41 43 66 65 63 62 65 70 73 74 78 87 86 80 73
41 45 50 52 50 54 51 43 38 34 33 38 35 29 29 34 41 45 48 53 57 59 58 57 53 53 58 47 45 65 77 72 69 69 70 74 82 90 94 95 92 85 79
51 55 54 50 48 50 46 36 36 30 31 26 26 26 27 32 38 46 54 56 54 54 52 53 51 51 52 56 59 79 78 74 79 77 71 68 75 83 89 94 95 91 89
59 54 53 51 52 45 39 33 30 25 26 29 28 30 35 42 43 56 54 52 50 49 46 42 41 47 50 58 70 84 91 89 87 83 85 84 90 94 96 94 90 93 97
55 53 47 45 41 40 31 28 27 32 32 33 37 38 42 46 45 53 48 48 48 49 47 48 47 47 57 66 75 81 82 87 87 86 87 89 90 90 89 89 84 86 98
49 46 38 31 31 33 27 30 29 29 30 38 36 38 43 46 48 49 55 53 50 44 47 51 56 56 60 61 66 75 82 86 87 88 91 87 86 87 88 93 87 82 91
47 38 32 31 30 35 32 32 30 32 39 39 40 41 46 48 50 52 52 54 54 53 59 64 65 69 70 69 76 82 83 77 84 93 94 91 79 76 80 82 85 87 92
43 38 37 36 37 38 35 29 29 33 43 44 45 46 51 51 55 57 56 54 56 58 60 60 88 86 81 80 82 82 85 80 77 85 84 78 72 69 74 76 80 85 97

GFSMW_925_rhum_153.txt.gz
RH
40 41 47 51 48 47 50 52 53 55 59 61 58 59 60 67 71 70 64 58 54 53 50 44 38 34 31 29 28 29 31 37 57 64 63 63 60 62 58 53 52 57 56
41 45 51 54 54 52 54 55 54 56 55 57 59 61 64 68 72 79 70 62 56 50 42 41 37 35 34 33 35 36 31 31 37 44 40 45 53 63 58 51 49 49 47
40 44 51 53 56 56 59 58 57 59 61 62 69 70 72 74 75 78 76 70 63 51 41 39 37 38 33 36 39 35 37 34 31 38 44 41 38 35 46 54 50 48 50
33 36 45 51 57 57 62 60 61 63 66 68 69 67 62 59 63 71 74 76 69 62 51 46 44 36 37 41 39 32 40 40 34 34 34 39 40 39 35 38 45 49 53
30 34 40 45 52 58 64 63 66 69 67 69 69 69 67 63 64 67 71 76 76 74 67 59 56 50 47 46 41 43 44 41 39 34 34 32 34 36 39 38 28 39 39
27 29 34 43 50 59 68 68 65 70 72 72 72 71 70 68 65 64 64 63 64 69 72 69 62 60 54 49 47 45 40 43 43 42 40 39 35 30 36 42 33 29 26
24 26 28 35 44 61 69 70 67 67 70 73 71 71 72 72 70 67 63 59 58 60 64 68 68 65 60 55 48 44 43 46 48 45 43 40 40 38 36 37 38 36 29
22 26 32 33 37 51 64 66 64 60 64 68 71 74 75 75 72 69 68 66 63 61 62 67 68 67 64 60 55 49 47 50 50 51 50 47 44 43 44 44 42 47 38
32 44 46 49 51 54 59 62 62 64 64 65 67 67 70 72 71 70 71 70 69 69 69 69 69 67 66 64 62 58 56 53 51 50 52 53 51 48 48 49 49 49 51
44 48 50 54 57 61 64 65 65 63 64 64 64 64 63 64 67 69 68 67 66 67 68 69 69 68 67 66 64 63 62 59 56 54 54 54 53 50 50 54 54 52 52
48 48 45 42 42 43 45 48 50 54 58 61 60 64 64 68 69 67 63 62 63 62 63 63 64 64 63 63 63 64 64 64 62 60 58 55 54 52 53 54 58 59 56
45 38 34 33 34 35 38 41 44 46 50 52 54 57 59 59 56 50 51 52 53 54 55 57 58 57 56 57 58 59 59 60 60 60 60 61 60 58 57 56 58 62 61
35 30 29 29 31 32 34 39 43 46 48 47 45 46 46 46 45 47 49 50 52 52 52 52 53 54 55 56 56 56 56 56 56 57 59 60 60 60 59 58 58 58 59
31 28 26 26 29 32 36 38 41 43 45 46 44 44 46 49 50 51 52 51 50 49 47 48 49 52 54 57 60 61 61 60 61 61 62 62 62 62 61 60 58 57 58
29 28 26 27 31 36 38 41 43 44 45 44 45 50 51 51 49 46 44 41 41 39 39 39 38 39 41 43 50 53 56 61 61 63 66 66 66 66 66 67 66 63 61
29 27 26 28 31 36 37 42 42 45 45 46 48 49 43 41 41 38 36 35 34 33 34 34 34 35 36 36 38 38 66 68 66 63 61 63 67 72 71 72 72 74 73
28 27 29 31 32 36 40 41 45 49 47 45 38 36 35 34 36 35 33 33 33 33 36 36 37 39 40 40 37 41 64 72 66 62 63 64 65 68 74 76 77 77 81
27 28 29 32 35 40 43 49 51 46 40 36 34 36 37 36 36 36 37 35 37 40 40 42 42 46 45 42 42 43 59 66 61 59 59 59 60 63 67 72 76 80 81
24 27 31 35 41 44 49 49 48 41 35 33 34 37 37 36 38 39 40 41 43 46 46 46 47 49 48 44 34 42 69 70 67 64 62 61 64 67 70 79 87 87 86
26 32 36 40 42 45 48 43 37 31 29 35 38 32 36 40 41 40 42 46 49 49 50 51 49 46 47 44 42 50 72 73 70 69 71 70 68 68 74 81 83 81 81
37 42 43 41 42 46 41 34 32 27 35 28 30 34 38 39 40 42 45 48 49 50 47 42 37 34 34 38 42 49 70 79 82 82 79 78 79 84 88 91 89 88 88
48 44 44 46 47 45 34 31 27 33 32 34 36 36 34 35 39 43 42 42 40 39 38 37 37 39 39 38 43 55 72 81 83 78 78 78 81 85 85 86 86 86 88
46 45 46 45 38 35 28 22 25 30 31 32 31 30 31 34 36 37 39 41 46 45 43 43 44 45 44 46 49 55 60 70 76 78 76 78 82 81 80 77 76 75 80
46 43 40 33 30 29 30 28 31 32 32 31 30 31 34 34 36 36 41 46 47 45 42 44 46 48 51 52 54 58 66 77 81 77 75 78 82 81 77 77 74 74 76
43 36 28 25 26 30 30 31 32 33 33 32 32 33 36 38 38 39 43 45 49 50 52 55 58 64 70 71 75 81 83 80 78 85 94 84 79 73 71 73 73 74 78
36 32 30 29 33 35 35 34 33 36 36 36 38 40 43 44 46 48 48 48 49 50 53 57 66 71 73 76 80 81 83 89 93 99 99 95 77 77 80 82 83 83 84

GFSMW_925_rhum_156.txt.gz
RH
48 41 43 42 41 43 49 53 54 55 58 63 64 65 69 70 72 69 59 54 50 46 46 43 35 28 26 26 25 26 29 34 36 55 60 69 64 68 62 57 55 55 55
52 51 51 47 44 47 50 52 53 54 58 58 56 60 63 66 72 75 64 58 53 46 41 37 31 25 29 32 28 27 29 32 31 38 42 63 65 62 61 57 51 49 49
53 56 59 55 51 52 52 54 54 55 56 57 57 59 60 67 70 72 70 65 59 52 41 39 35 32 27 32 32 29 34 30 33 31 39 61 62 46 59 59 52 49 48
50 56 59 60 57 56 56 57 56 58 59 57 58 64 67 64 65 73 74 73 67 62 56 49 46 39 31 31 35 28 27 32 35 32 34 33 42 56 51 45 45 45 47
49 55 60 59 59 59 60 60 60 61 61 57 60 64 65 62 64 67 70 73 76 72 66 62 56 50 44 37 34 32 35 38 34 35 35 34 33 36 52 59 37 38 44
46 48 50 53 59 60 62 63 63 64 63 60 60 66 67 65 64 64 64 63 64 67 68 67 62 58 55 48 42 39 37 34 36 38 37 39 39 42 47 63 54 44 30
44 49 56 54 58 65 67 66 66 68 67 63 65 66 68 70 69 67 66 62 59 59 61 65 67 64 62 59 54 47 42 39 40 40 40 42 41 39 38 42 49 51 34
39 45 51 52 61 68 70 70 67 68 67 69 69 70 69 69 70 70 68 66 65 62 61 62 66 67 65 64 62 57 53 49 46 44 43 41 41 43 42 43 48 66 54
42 46 45 40 50 66 69 69 67 64 65 66 68 70 71 72 70 70 69 68 67 67 67 65 66 67 68 66 65 64 61 59 57 54 52 50 49 49 49 47 47 55 75
61 65 65 55 52 57 63 64 63 63 63 65 66 67 67 67 67 68 68 68 68 67 67 67 67 67 67 66 66 66 65 64 63 62 59 57 55 55 54 52 50 51 59
66 69 68 62 63 64 65 65 64 63 64 64 64 65 64 65 68 69 67 64 63 61 60 61 61 61 61 61 62 62 63 64 64 64 64 63 61 59 57 55 54 54 58
66 59 50 45 46 46 47 49 50 52 54 56 59 64 66 66 62 56 52 52 52 52 52 52 52 53 54 53 54 56 56 57 58 58 60 61 62 63 63 61 59 57 59
52 46 43 41 40 40 42 45 47 50 49 49 50 50 49 48 46 47 49 50 50 48 48 48 48 49 50 53 54 56 57 58 58 58 60 60 60 60 61 64 65 64 62
42 41 41 40 35 36 40 42 44 45 45 46 44 45 46 48 50 51 49 45 39 34 30 30 29 32 37 38 39 47 49 43 34 37 46 58 64 65 65 65 66 67 68
40 39 39 42 37 38 38 41 43 45 44 44 45 49 51 50 46 39 33 27 25 26 28 26 27 29 31 32 37 38 38 37 40 44 48 55 60 62 66 71 74 73 74
38 36 37 38 40 40 41 43 44 45 44 48 51 49 43 37 32 25 24 25 25 26 24 26 29 30 30 31 32 39 44 47 53 58 55 56 59 60 63 65 70 76 87
37 37 38 37 37 38 41 43 45 46 46 46 40 36 32 30 27 26 26 26 26 27 28 31 33 34 30 27 32 42 49 51 50 59 61 61 59 58 58 60 63 69 72
36 38 38 35 36 40 43 45 47 47 44 37 33 31 28 28 27 25 27 27 28 31 32 32 33 34 27 26 30 32 41 49 50 57 65 65 64 63 64 66 71 74 80
35 34 33 36 41 44 47 49 48 40 36 32 33 31 26 26 27 27 28 28 33 32 35 37 34 31 30 29 31 35 42 47 50 57 66 69 71 71 77 78 78 78 79
31 35 36 41 45 48 49 48 41 34 33 33 30 26 27 27 26 25 28 32 36 40 39 36 33 37 38 35 35 34 39 53 58 69 75 79 81 77 81 78 81 88 81
41 40 42 44 47 48 44 38 32 31 32 24 25 26 26 26 28 27 30 35 39 41 41 41 39 37 36 36 37 39 44 51 63 76 85 85 80 75 76 77 83 82 90
46 43 48 48 45 40 33 32 31 29 25 27 27 28 29 29 30 32 34 36 40 42 41 43 43 41 42 43 44 46 52 56 63 67 74 80 82 81 79 79 80 80 84
48 49 49 47 39 30 27 26 29 27 27 26 28 28 28 28 30 33 34 37 39 44 48 49 49 49 49 48 52 60 63 68 74 77 80 78 80 79 82 78 76 77 76
49 46 40 35 32 27 26 27 26 26 24 26 27 27 28 31 33 35 37 39 42 46 48 51 56 58 61 64 71 74 78 78 82 88 90 92 90 78 72 72 74 74 75
41 36 32 29 29 28 28 26 25 24 24 27 27 30 33 36 37 40 44 46 46 48 54 59 62 68 72 72 75 76 78 77 88 92 98 96 92 96 85 76 72 72 77
31 28 28 29 30 30 29 26 23 20 21 26 32 35 40 41 43 47 49 45 50 54 57 61 68 74 78 82 82 80 78 76 84 90 99 92 85 81 75 74 81 82 86

GFSMW_925_rhum_159.txt.gz
RH
57 49 48 50 51 53 51 51 56 56 56 66 65 70 69 71 69 64 55 50 47 46 46 41 31 24 25 24 21 21 28 28 26 28 53 48 70 71 68 62 60 59 55
56 55 52 48 48 51 51 54 54 55 54 58 62 64 70 70 72 72 60 54 50 46 40 36 30 23 24 27 22 19 20 34 31 26 47 68 60 69 66 64 58 52 51
57 61 58 54 47 51 53 53 52 52 59 60 60 64 65 67 69 67 63 60 57 53 42 39 36 29 25 26 29 26 25 23 30 34 29 46 60 54 35 62 61 54 51
59 63 58 58 51 50 52 52 52 53 56 55 54 53 56 67 68 72 70 69 67 61 57 51 46 41 34 28 31 30 27 26 28 28 35 34 38 47 46 30 46 53 50
63 67 64 59 54 51 53 54 55 54 54 54 53 61 66 63 65 66 69 70 71 69 66 59 55 51 47 42 36 33 31 34 35 34 34 35 34 38 53 64 42 32 30
61 64 65 63 60 56 56 58 58 58 57 57 60 62 63 63 61 59 61 63 64 66 65 63 62 59 55 54 49 44 40 37 37 38 40 40 39 41 49 68 61 51 32
61 67 71 71 70 65 62 62 60 62 61 60 61 65 65 66 63 62 66 65 62 62 62 64 64 65 63 62 60 57 52 48 44 43 44 44 44 44 46 48 53 60 40
55 62 66 69 72 72 66 65 64 64 66 63 64 65 66 65 64 64 67 66 65 64 63 63 64 66 67 66 65 63 61 59 57 56 54 52 50 48 48 50 52 60 61
54 62 67 71 78 76 69 66 67 66 66 66 68 70 68 64 64 65 68 67 66 66 66 65 64 65 66 67 67 66 64 64 64 62 62 60 59 57 56 55 56 62 69
57 59 62 68 76 70 69 69 67 66 66 69 69 68 66 66 66 69 70 69 69 69 68 67 67 66 67 67 67 67 66 67 66 66 66 65 64 62 62 60 58 59 66
61 68 72 60 67 69 70 70 68 67 67 67 67 67 67 68 69 70 70 67 64 60 57 56 54 53 54 54 56 56 57 59 60 60 61 62 63 65 64 65 64 62 64
78 79 78 72 70 68 68 67 67 67 66 65 64 65 67 69 70 65 56 52 48 49 49 49 48 49 48 48 46 46 48 53 55 57 59 57 58 62 62 64 67 70 69
71 67 65 65 65 65 64 59 58 56 56 59 62 64 60 53 50 49 47 47 46 42 41 37 31 27 30 33 34 35 39 46 48 42 34 34 42 49 54 62 70 70 70
56 55 57 55 51 50 50 50 51 49 50 50 49 48 47 47 48 48 46 38 28 24 23 23 22 24 25 26 27 32 36 36 34 34 36 39 44 52 60 65 69 74 78
51 50 53 54 48 48 47 48 47 46 46 46 46 48 50 50 46 37 26 22 22 22 23 20 20 22 25 27 31 35 36 40 41 36 33 35 43 51 56 66 74 77 81
45 45 46 49 48 46 45 45 46 45 45 47 50 50 46 38 28 22 22 23 21 21 21 21 23 23 24 24 25 31 40 43 44 42 37 34 40 42 55 60 60 62 76
42 43 44 46 44 44 45 45 44 45 49 51 46 39 32 27 25 24 23 22 22 23 23 23 25 24 23 23 24 28 37 42 40 42 42 43 43 50 61 67 68 66 70
42 43 44 43 42 43 44 45 46 49 46 40 34 30 28 26 25 23 22 22 23 26 27 26 29 31 24 24 27 28 34 36 38 39 38 45 50 57 74 82 83 84 85
41 41 38 40 44 44 46 47 49 45 38 34 31 27 24 24 23 22 23 23 24 26 28 31 33 35 32 29 30 32 36 38 38 41 48 50 60 70 85 79 81 83 74
38 42 42 45 45 49 48 48 41 37 34 33 29 25 24 23 23 24 23 24 27 30 34 36 35 34 34 32 35 38 45 53 56 58 62 67 82 82 78 77 74 71 70
47 45 45 47 49 50 49 43 36 34 33 27 23 24 25 26 25 25 26 30 32 35 37 38 35 36 37 40 42 49 58 62 66 67 70 72 77 80 80 86 99 100 94
54 48 52 52 50 48 40 34 33 32 23 24 25 26 26 26 25 27 28 30 34 37 38 41 42 41 42 47 52 62 68 72 76 79 78 78 81 78 75 77 84 87 93
58 52 48 45 39 36 31 30 28 26 26 25 25 25 25 25 29 30 32 33 35 40 44 48 55 57 59 62 66 74 78 78 82 84 77 76 85 85 85 86 79 73 79
55 49 44 36 30 28 26 25 27 26 24 23 22 24 26 32 30 30 35 39 40 47 50 57 66 69 70 74 76 75 76 81 87 90 93 97 92 90 84 80 79 77 68
49 41 36 31 29 28 27 26 25 22 20 22 26 28 31 31 32 33 37 42 40 51 66 69 71 76 79 79 79 80 77 79 86 90 96 96 85 82 87 84 80 79 77
40 35 31 29 30 28 28 26 22 19 22 26 28 30 32 34 36 41 40 33 42 48 49 53 70 78 80 79 81 77 75 75 79 90 88 83 82 85 86 90 86 85 83

GFSMW_925_rhum_162.txt.gz
RH
66 62 66 64 61 59 59 59 61 65 65 66 68 68 66 66 64 58 53 49 46 46 44 38 27 22 22 20 17 19 24 27 28 27 35 32 59 71 73 69 64 61 58
64 62 67 67 63 62 59 56 58 61 58 59 60 65 68 72 68 66 57 52 47 44 40 34 28 22 22 23 21 18 19 31 29 29 46 67 45 69 69 71 68 62 54
65 64 65 69 69 65 58 54 56 54 56 59 65 68 70 72 75 72 61 57 53 48 40 37 36 31 26 24 26 24 23 23 28 34 32 34 46 56 21 51 63 64 59
60 60 61 70 70 66 54 52 54 54 57 63 63 63 64 66 63 64 64 64 60 58 55 50 47 43 38 32 31 30 31 31 32 30 37 36 39 42 42 23 27 33 48
61 64 64 67 65 61 53 53 54 55 60 60 59 60 58 64 67 70 68 65 66 68 63 61 57 53 51 47 42 39 36 35 37 37 36 36 35 41 55 63 47 32 29
65 62 64 67 61 54 54 55 55 56 58 58 54 55 63 63 65 66 63 63 64 64 66 66 64 62 60 56 55 52 48 46 44 42 42 43 42 42 49 70 63 54 39
69 68 70 67 68 61 58 58 58 59 58 57 58 61 62 61 57 56 60 64 62 62 64 65 65 66 66 64 63 61 60 58 56 53 52 51 50 50 52 57 60 67 47
68 70 72 69 72 67 61 62 62 61 61 60 60 64 65 64 63 62 64 65 65 64 63 63 64 65 66 66 66 65 65 64 64 63 62 61 60 59 58 59 60 69 68
69 73 72 76 74 71 68 64 64 63 63 62 63 65 66 66 64 65 67 67 67 67 67 67 66 65 65 66 67 66 65 66 66 66 67 67 66 66 65 65 64 71 81
69 73 78 79 79 73 68 66 64 64 64 66 66 67 68 67 67 68 69 70 70 69 69 69 65 64 62 62 63 62 62 64 63 64 66 67 64 66 67 69 71 72 78
70 74 80 84 82 75 70 70 69 68 70 69 70 71 69 69 70 71 70 71 68 64 59 55 52 49 49 51 51 51 51 53 55 55 58 59 53 41 41 50 61 72 79
72 76 82 87 85 80 76 74 73 70 69 70 70 70 69 71 72 72 66 59 52 50 49 46 44 41 36 34 33 34 34 39 47 48 38 31 35 36 39 45 55 67 70
83 87 88 89 86 82 80 75 73 70 70 69 68 70 71 72 68 57 51 48 47 42 38 29 23 22 25 25 25 27 31 36 36 36 36 35 35 36 43 51 61 63 69
78 83 86 84 78 76 73 71 70 67 65 66 68 67 60 53 50 49 48 41 28 23 22 21 21 23 24 25 27 27 28 29 32 34 35 34 34 39 44 54 64 73 82
71 71 72 73 67 65 62 59 56 55 57 56 52 49 49 50 50 44 30 23 22 22 21 21 21 22 23 25 26 26 26 32 32 30 31 33 34 32 37 78 78 78 80
59 58 60 61 62 58 56 53 51 49 48 49 50 51 51 47 34 24 22 22 21 22 22 21 21 22 23 23 25 31 34 34 36 36 33 35 35 36 42 54 72 79 84
51 53 54 55 55 52 50 49 47 48 49 50 51 48 40 28 24 23 24 22 22 22 22 23 25 26 26 27 27 28 33 35 35 39 41 41 43 47 49 54 65 79 84
49 51 52 50 49 48 47 47 47 50 52 48 42 34 28 25 25 24 22 22 22 22 25 27 32 30 24 26 27 30 34 38 39 42 46 52 55 57 62 81 85 80 78
45 45 44 45 47 47 47 47 52 51 44 37 32 28 25 24 24 24 21 21 23 25 28 30 30 32 29 31 34 38 45 50 55 60 63 66 66 70 84 82 82 85 79
42 45 44 45 47 50 48 50 47 42 37 32 28 25 25 25 25 24 22 26 28 29 31 29 32 32 35 33 38 54 63 64 66 72 75 75 79 79 79 84 92 99 98
49 45 47 50 49 50 49 47 42 37 33 29 26 26 27 25 24 24 26 27 29 30 29 30 30 32 36 40 48 67 70 74 80 81 80 77 74 76 81 80 88 93 90
59 53 56 55 54 51 45 41 37 34 29 26 27 27 26 24 24 25 26 28 30 32 34 37 37 35 39 46 59 74 78 78 74 78 81 72 72 74 81 84 82 79 76
62 55 55 57 54 46 38 34 35 27 26 27 26 25 24 24 27 26 26 29 34 39 42 47 52 51 51 61 70 81 86 83 74 74 78 84 89 90 88 81 79 72 81
59 53 48 44 42 37 31 27 27 27 25 23 22 23 25 28 27 28 31 34 39 43 48 57 64 69 76 79 81 84 83 80 82 86 94 98 93 86 79 77 80 84 85
51 43 37 35 34 30 28 27 27 23 20 21 24 26 28 28 29 31 35 39 38 47 67 68 76 84 87 85 83 81 79 83 81 92 91 81 80 85 86 88 89 90 90
45 38 32 30 32 29 28 27 23 18 20 23 25 26 29 32 37 40 36 35 43 46 49 52 72 80 83 85 85 82 76 76 81 75 76 81 84 87 88 90 88 89 93

GFSMW_925_rhum_165.txt.gz
RH
75 72 68 68 66 60 62 62 65 68 66 66 67 69 68 63 61 57 52 49 47 47 43 35 23 19 18 18 16 19 23 28 25 19 26 26 46 69 74 75 71 66 62
75 72 72 78 74 63 63 63 65 67 65 62 62 67 66 67 62 58 54 50 46 44 41 32 25 20 19 21 22 19 21 27 30 32 38 55 36 62 67 73 73 70 66
81 72 74 79 77 71 65 63 64 65 65 64 64 65 70 73 72 66 58 54 48 44 38 36 35 31 26 24 27 24 25 25 29 30 34 35 34 51 19 36 51 61 64
76 76 75 76 79 75 68 60 60 62 63 66 64 64 67 74 71 65 59 58 56 55 51 47 46 44 40 36 32 31 30 32 32 32 35 38 42 43 44 24 24 26 27
72 74 74 76 77 78 68 62 58 60 60 64 65 66 64 61 60 66 66 64 64 64 62 60 58 54 52 50 46 44 41 39 37 38 37 37 38 43 56 63 48 35 37
70 67 68 74 79 78 68 58 57 59 59 65 66 64 58 63 68 70 67 66 66 67 67 65 64 62 61 59 58 56 54 53 52 50 48 48 45 46 49 67 62 59 50
70 70 75 72 81 81 71 59 58 61 62 65 63 59 62 61 61 60 59 62 62 65 66 66 65 65 66 65 65 65 63 63 63 62 62 61 60 60 60 63 67 73 58
69 72 73 70 72 78 72 63 60 59 62 63 61 63 64 62 59 58 62 64 64 63 62 62 64 65 66 68 68 68 68 68 67 67 68 68 67 68 68 70 70 80 77
73 72 72 69 75 76 70 64 60 58 60 62 63 66 66 65 64 64 66 67 68 66 67 66 65 66 67 67 68 68 68 67 67 67 69 70 67 70 72 75 78 82 93
79 76 76 78 76 70 69 63 58 59 61 64 64 64 66 68 67 68 69 69 69 70 69 68 67 64 60 58 56 53 54 53 52 54 57 58 55 48 40 42 51 70 90
79 82 86 86 82 74 69 64 63 63 65 66 66 68 70 71 70 71 72 72 71 67 63 57 53 48 46 43 39 37 37 38 41 45 45 37 35 34 36 42 48 57 72
85 89 92 93 91 84 76 69 68 67 67 68 71 73 74 73 74 73 73 68 59 53 51 48 41 31 26 26 25 25 26 30 34 34 35 35 35 28 28 35 42 52 57
90 95 95 95 95 90 81 74 73 71 71 73 75 75 74 75 74 69 59 52 50 46 38 26 21 22 22 22 23 24 24 26 27 32 37 34 34 32 33 35 42 55 70
88 94 95 96 94 89 83 79 77 73 74 75 74 73 74 73 63 54 50 46 34 25 23 21 22 22 22 22 23 21 20 22 25 31 34 34 36 39 38 42 50 65 77
84 88 93 94 89 85 82 78 76 75 73 73 72 69 60 54 52 49 37 25 24 23 23 22 21 21 21 22 23 25 27 30 31 32 33 34 36 38 41 66 68 70 78
77 80 82 83 82 77 74 70 67 67 67 64 57 53 52 50 43 28 24 24 23 23 22 20 20 22 24 26 30 36 35 32 33 36 35 37 40 43 49 64 72 78 87
71 72 73 73 72 68 63 58 56 57 54 52 53 52 47 36 25 25 25 24 22 21 20 22 24 26 26 28 30 34 39 37 41 44 49 56 58 60 63 66 71 80 82
60 62 64 65 61 58 54 52 52 52 53 53 50 43 31 26 27 26 23 20 20 21 24 27 27 25 27 30 32 39 39 44 49 58 62 69 72 73 79 85 81 77 74
54 55 56 56 55 53 51 50 54 54 51 46 39 31 27 27 26 23 21 22 23 24 25 28 28 28 26 31 33 41 54 60 66 71 77 80 82 81 82 83 89 88 88
50 55 52 52 52 53 49 52 55 49 42 36 30 28 26 25 24 22 22 24 25 26 26 25 27 30 32 34 38 59 69 75 79 82 76 71 75 70 73 84 93 100 98
53 51 50 54 52 52 50 52 48 42 36 31 28 28 27 25 22 22 22 24 25 26 27 27 27 30 36 40 45 71 79 82 85 84 80 70 70 69 79 82 88 92 86
62 54 58 58 56 52 48 47 42 39 34 29 28 28 26 23 23 23 24 26 28 30 32 34 32 32 38 44 56 81 84 83 83 82 72 75 85 87 88 85 81 74 82
65 60 61 62 56 50 44 41 42 34 28 28 27 24 23 25 24 23 27 30 32 35 38 43 49 51 52 59 69 81 88 83 77 80 86 90 96 83 76 81 73 76 76
65 61 60 58 53 46 40 36 32 27 26 25 23 23 25 26 26 28 30 33 37 40 46 57 68 72 76 82 86 85 79 79 86 90 98 98 74 65 73 78 78 86 90
56 54 53 48 43 37 33 28 26 25 22 20 24 25 26 28 30 31 33 34 37 48 65 70 76 84 87 87 85 78 80 81 80 86 88 76 78 83 84 87 88 87 92
47 46 43 39 35 30 28 28 24 18 17 22 25 29 31 32 32 32 32 38 42 49 50 53 73 82 84 88 82 78 78 78 80 82 83 86 87 89 89 87 88 87 89

GFSMW_925_rhum_168.txt.gz
RH
83 87 83 83 84 80 72 62 63 67 66 69 68 67 64 62 59 56 52 51 50 46 41 31 22 20 20 18 17 18 22 27 22 19 17 21 35 48 69 74 74 71 67
86 85 81 88 88 84 76 68 65 68 68 65 65 66 65 64 60 56 52 49 47 45 40 29 23 21 22 22 21 20 20 23 27 30 32 48 29 45 46 65 69 70 73
91 86 81 82 89 85 79 72 68 69 70 66 64 66 68 69 64 59 54 51 47 42 37 35 34 31 27 25 24 24 24 27 29 33 32 41 35 46 20 27 40 39 42
85 84 84 86 85 83 78 67 68 68 69 67 64 60 66 75 69 61 56 54 53 50 46 45 46 43 41 38 34 33 32 31 33 32 34 37 42 47 47 26 27 30 37
82 88 85 86 86 88 80 71 68 67 69 67 64 64 68 67 69 66 60 60 61 60 59 58 56 54 53 51 50 48 47 45 44 43 42 40 41 44 55 62 47 48 47
83 83 83 87 88 94 81 74 68 69 69 65 63 68 66 63 66 67 66 66 67 68 68 63 62 61 61 61 60 59 58 58 59 58 57 55 52 51 53 68 66 66 56
83 85 90 91 90 94 90 79 68 67 70 63 67 68 66 63 65 65 64 66 67 71 66 67 66 67 68 68 67 66 66 66 66 66 66 66 66 67 68 69 73 78 65
78 81 84 85 90 89 86 75 71 70 70 61 72 66 62 64 64 60 59 63 63 63 64 66 67 68 68 68 68 67 67 67 68 70 72 71 73 75 78 79 78 92 84
74 77 81 82 84 86 80 76 72 64 64 68 65 61 66 64 61 62 66 67 66 67 68 67 66 67 66 66 65 64 62 60 59 59 60 60 61 62 58 58 73 90 98
79 81 83 84 80 85 84 77 65 61 62 64 62 64 68 68 69 68 68 69 69 71 71 70 67 62 56 52 50 47 45 41 40 44 46 42 34 33 35 38 45 61 93
80 83 84 85 84 87 89 78 73 63 65 63 65 67 71 72 72 71 72 72 74 70 67 58 51 47 42 35 30 27 25 27 31 32 32 32 33 33 31 32 36 43 64
86 87 94 91 89 89 95 89 80 67 66 63 65 72 74 74 73 75 75 73 64 56 51 46 34 24 24 22 21 21 22 23 24 28 32 32 31 28 30 32 33 39 45
98 98 97 95 87 92 94 92 77 68 66 68 73 78 78 77 77 74 68 58 52 48 35 23 21 21 21 21 21 19 20 22 25 30 31 30 33 33 36 41 44 48 58
98 98 98 96 93 94 97 86 77 72 70 76 79 80 80 78 71 61 53 49 38 26 22 21 21 20 20 19 19 20 21 23 26 28 31 34 38 43 44 50 61 71 75
98 98 98 98 99 99 94 88 81 77 79 81 79 78 76 68 58 51 40 28 25 23 23 21 20 20 21 23 24 24 26 28 28 27 32 37 43 48 58 78 77 79 82
96 98 97 95 94 97 92 85 84 82 79 78 75 70 61 54 48 34 26 25 24 23 21 20 21 22 22 25 29 31 30 33 36 40 42 48 50 56 68 75 84 85 88
89 93 94 92 88 85 82 81 79 78 74 69 62 56 52 42 30 27 25 24 22 20 20 22 23 24 26 28 30 33 39 39 45 52 60 68 69 72 78 80 81 80 80
80 82 81 81 78 75 72 72 70 66 60 57 54 48 37 29 29 26 23 21 20 21 22 23 24 26 28 29 30 34 42 50 57 67 75 75 71 74 84 73 69 73 75
70 71 72 73 68 63 62 61 59 56 55 53 46 36 27 28 26 22 21 22 23 23 24 25 26 26 28 31 36 60 60 66 71 75 78 76 76 72 72 72 85 93 95
62 67 67 66 60 60 55 56 58 54 50 43 34 30 27 24 22 21 22 23 23 25 26 27 29 31 31 36 43 73 76 76 80 85 83 76 78 71 75 92 96 87 89
61 63 63 63 60 56 53 56 52 47 40 34 30 28 26 23 21 21 22 24 25 26 26 26 29 34 42 43 48 63 83 86 87 83 77 72 73 85 94 77 72 77 73
66 62 66 66 60 54 50 51 46 40 33 29 28 27 26 22 22 22 25 27 27 27 29 32 33 35 40 50 58 85 88 84 78 79 78 86 92 89 79 68 77 75 78
67 66 67 65 59 52 47 45 44 35 30 28 28 26 24 26 26 25 26 26 29 33 38 45 48 46 45 56 68 82 87 79 77 78 86 88 95 87 72 76 77 83 82
72 67 64 62 58 50 44 40 37 30 27 27 26 25 27 27 26 26 29 31 35 41 46 50 58 64 69 71 79 87 79 76 80 85 92 97 78 72 77 79 83 87 91
68 62 60 55 50 45 40 34 29 27 25 23 26 30 28 26 28 30 32 36 41 46 52 62 76 83 82 83 87 83 81 82 87 87 81 78 82 92 92 90 86 84 82
60 57 52 47 44 38 32 30 27 23 19 24 28 27 28 30 29 31 34 38 41 44 48 53 74 82 87 92 88 81 83 82 85 83 89 95 92 85 82 82 85 87 92